Time,TemperatureF,DewpointF,PressureIn,WindDirection,WindDirectionDegrees,WindSpeedMPH,WindSpeedGustMPH,Humidity,HourlyPrecipIn,Conditions,Clouds,dailyrainin,SoftwareType,DateUTC
2013-03-24 00:00:00,29.6,24.8,30.02,East,84,0.0,1.0,82,0.00,,---,0.00,VWS V14.00,2013-03-24 04:00:00,
2013-03-24 00:01:00,29.4,24.6,30.02,East,84,0.0,1.0,82,0.00,,---,0.00,VWS V14.00,2013-03-24 04:01:00,
2013-03-24 00:06:00,29.2,24.4,30.02,East,84,0.0,1.0,82,0.00,,---,0.00,VWS V14.00,2013-03-24 04:06:00,
2013-03-24 00:07:00,29.1,24.3,30.02,East,84,0.0,1.0,82,0.00,,---,0.00,VWS V14.00,2013-03-24 04:07:00,
2013-03-24 00:11:00,28.9,24.1,30.01,East,84,0.0,1.0,82,0.00,,---,0.00,VWS V14.00,2013-03-24 04:11:00,
2013-03-24 00:12:00,28.9,24.1,30.01,East,84,0.0,1.0,82,0.00,,---,0.00,VWS V14.00,2013-03-24 04:12:00,
2013-03-24 00:13:00,28.9,24.1,30.01,East,84,0.0,1.0,82,0.00,,---,0.00,VWS V14.00,2013-03-24 04:13:00,
2013-03-24 00:14:00,28.9,24.1,30.02,East,84,0.0,1.0,82,0.00,,---,0.00,VWS V14.00,2013-03-24 04:14:00,
2013-03-24 00:17:00,28.9,24.1,30.01,East,84,1.0,1.0,82,0.00,,---,0.00,VWS V14.00,2013-03-24 04:17:00,
2013-03-24 00:19:00,28.9,24.1,30.01,East,84,0.0,1.0,82,0.00,,---,0.00,VWS V14.00,2013-03-24 04:19:00,
2013-03-24 00:20:00,28.8,24.0,30.01,East,84,1.0,1.0,82,0.00,,---,0.00,VWS V14.00,2013-03-24 04:20:00,
2013-03-24 00:22:00,28.8,24.0,30.01,East,84,0.0,1.0,82,0.00,,---,0.00,VWS V14.00,2013-03-24 04:22:00,
2013-03-24 00:25:00,28.8,24.0,30.01,East,84,0.0,1.0,82,0.00,,---,0.00,VWS V14.00,2013-03-24 04:25:00,
2013-03-24 00:28:00,28.7,23.9,30.01,East,84,0.0,1.0,82,0.00,,---,0.00,VWS V14.00,2013-03-24 04:28:00,
2013-03-24 00:30:00,28.7,23.9,30.01,East,84,0.0,0.0,82,0.00,,---,0.00,VWS V14.00,2013-03-24 04:30:00,
2013-03-24 00:33:00,28.5,23.7,30.01,East,84,0.0,0.0,82,0.00,,---,0.00,VWS V14.00,2013-03-24 04:33:00,
2013-03-24 00:35:00,28.5,23.7,30.01,East,84,0.0,0.0,82,0.00,,---,0.00,VWS V14.00,2013-03-24 04:35:00,
2013-03-24 00:38:00,28.5,23.7,30.01,East,84,0.0,0.0,82,0.00,,---,0.00,VWS V14.00,2013-03-24 04:38:00,
2013-03-24 00:40:00,28.5,23.7,30.01,East,84,0.0,0.0,82,0.00,,---,0.00,VWS V14.00,2013-03-24 04:40:00,
2013-03-24 00:42:00,28.7,23.9,30.01,East,84,1.0,2.0,82,0.00,,---,0.00,VWS V14.00,2013-03-24 04:42:00,
2013-03-24 00:43:00,28.7,24.2,30.01,East,84,1.0,2.0,83,0.00,,---,0.00,VWS V14.00,2013-03-24 04:43:00,
2013-03-24 00:46:00,28.8,24.3,30.01,East,84,0.0,2.0,83,0.00,,---,0.00,VWS V14.00,2013-03-24 04:46:00,
2013-03-24 00:47:00,28.8,24.3,30.01,East,84,1.0,2.0,83,0.00,,---,0.00,VWS V14.00,2013-03-24 04:47:00,
2013-03-24 00:50:00,28.8,24.3,30.01,East,84,0.0,2.0,83,0.00,,---,0.00,VWS V14.00,2013-03-24 04:50:00,
2013-03-24 00:52:00,28.8,24.3,30.01,East,84,0.0,2.0,83,0.00,,---,0.00,VWS V14.00,2013-03-24 04:52:00,
2013-03-24 00:54:00,28.8,24.3,30.01,East,84,0.0,2.0,83,0.00,,---,0.00,VWS V14.00,2013-03-24 04:54:00,
2013-03-24 00:56:00,28.7,24.2,30.01,East,84,0.0,2.0,83,0.00,,---,0.00,VWS V14.00,2013-03-24 04:56:00,
2013-03-24 00:57:00,28.7,24.2,30.01,East,84,0.0,2.0,83,0.00,,---,0.00,VWS V14.00,2013-03-24 04:57:00,
2013-03-24 01:00:00,28.5,24.0,30.01,East,84,0.0,0.0,83,0.00,,---,0.00,VWS V14.00,2013-03-24 05:00:00,
2013-03-24 01:02:00,28.5,24.0,30.00,East,84,0.0,0.0,83,0.00,,---,0.00,VWS V14.00,2013-03-24 05:02:00,
2013-03-24 01:04:00,28.4,23.9,30.01,East,84,0.0,0.0,83,0.00,,---,0.00,VWS V14.00,2013-03-24 05:04:00,
2013-03-24 01:07:00,28.3,23.8,30.00,East,84,0.0,0.0,83,0.00,,---,0.00,VWS V14.00,2013-03-24 05:07:00,
2013-03-24 01:08:00,28.3,23.8,30.00,East,84,0.0,0.0,83,0.00,,---,0.00,VWS V14.00,2013-03-24 05:08:00,
2013-03-24 01:10:00,28.3,23.8,30.00,East,84,0.0,0.0,83,0.00,,---,0.00,VWS V14.00,2013-03-24 05:10:00,
2013-03-24 01:12:00,28.1,23.6,30.00,East,84,0.0,0.0,83,0.00,,---,0.00,VWS V14.00,2013-03-24 05:12:00,
2013-03-24 01:16:00,27.9,23.4,30.00,East,84,0.0,0.0,83,0.00,,---,0.00,VWS V14.00,2013-03-24 05:16:00,
2013-03-24 01:18:00,27.8,23.3,30.00,East,84,0.0,0.0,83,0.00,,---,0.00,VWS V14.00,2013-03-24 05:18:00,
2013-03-24 01:21:00,27.6,23.1,30.00,East,84,0.0,0.0,83,0.00,,---,0.00,VWS V14.00,2013-03-24 05:21:00,
2013-03-24 01:22:00,27.5,23.0,30.00,East,84,0.0,0.0,83,0.00,,---,0.00,VWS V14.00,2013-03-24 05:22:00,
2013-03-24 01:24:00,27.4,22.9,30.00,East,84,0.0,0.0,83,0.00,,---,0.00,VWS V14.00,2013-03-24 05:24:00,
2013-03-24 01:27:00,27.5,23.3,30.00,East,84,0.0,0.0,84,0.00,,---,0.00,VWS V14.00,2013-03-24 05:27:00,
2013-03-24 01:28:00,27.6,23.4,30.00,East,84,0.0,0.0,84,0.00,,---,0.00,VWS V14.00,2013-03-24 05:28:00,
2013-03-24 01:29:00,27.6,23.4,30.00,East,84,0.0,0.0,84,0.00,,---,0.00,VWS V14.00,2013-03-24 05:29:00,
2013-03-24 01:33:00,27.8,23.6,30.00,East,84,1.0,2.0,84,0.00,,---,0.00,VWS V14.00,2013-03-24 05:33:00,
2013-03-24 01:34:00,27.8,23.6,30.00,East,84,1.0,2.0,84,0.00,,---,0.00,VWS V14.00,2013-03-24 05:34:00,
2013-03-24 01:35:00,27.8,23.6,30.00,East,84,1.0,2.0,84,0.00,,---,0.00,VWS V14.00,2013-03-24 05:35:00,
2013-03-24 01:37:00,27.8,23.6,30.00,East,84,1.0,2.0,84,0.00,,---,0.00,VWS V14.00,2013-03-24 05:37:00,
2013-03-24 01:39:00,27.8,23.9,30.00,East,84,1.0,2.0,85,0.00,,---,0.00,VWS V14.00,2013-03-24 05:39:00,
2013-03-24 01:40:00,27.8,23.9,30.00,East,84,0.0,2.0,85,0.00,,---,0.00,VWS V14.00,2013-03-24 05:40:00,
2013-03-24 01:42:00,27.8,23.9,30.00,East,84,0.0,2.0,85,0.00,,---,0.00,VWS V14.00,2013-03-24 05:42:00,
2013-03-24 01:43:00,27.7,23.8,30.00,East,84,0.0,2.0,85,0.00,,---,0.00,VWS V14.00,2013-03-24 05:43:00,
2013-03-24 01:45:00,27.6,23.4,30.00,East,84,1.0,2.0,84,0.00,,---,0.00,VWS V14.00,2013-03-24 05:45:00,
2013-03-24 01:46:00,27.5,23.6,30.00,East,84,0.0,2.0,85,0.00,,---,0.00,VWS V14.00,2013-03-24 05:46:00,
2013-03-24 01:47:00,27.5,23.6,30.00,East,84,1.0,2.0,85,0.00,,---,0.00,VWS V14.00,2013-03-24 05:47:00,
2013-03-24 01:49:00,27.4,23.5,30.01,East,84,0.0,2.0,85,0.00,,---,0.00,VWS V14.00,2013-03-24 05:49:00,
2013-03-24 01:52:00,27.3,23.4,30.01,East,84,0.0,2.0,85,0.00,,---,0.00,VWS V14.00,2013-03-24 05:52:00,
2013-03-24 01:53:00,27.3,23.4,30.01,East,84,0.0,2.0,85,0.00,,---,0.00,VWS V14.00,2013-03-24 05:53:00,
2013-03-24 01:56:00,27.2,23.3,30.01,East,84,1.0,2.0,85,0.00,,---,0.00,VWS V14.00,2013-03-24 05:56:00,
2013-03-24 01:57:00,27.2,23.3,30.01,East,84,0.0,2.0,85,0.00,,---,0.00,VWS V14.00,2013-03-24 05:57:00,
2013-03-24 01:58:00,27.2,23.3,30.01,East,84,0.0,0.0,85,0.00,,---,0.00,VWS V14.00,2013-03-24 05:58:00,
2013-03-24 02:01:00,27.0,23.1,30.01,East,84,2.0,2.0,85,0.00,,---,0.00,VWS V14.00,2013-03-24 06:01:00,
2013-03-24 02:02:00,27.0,23.1,30.01,East,84,1.0,3.0,85,0.00,,---,0.00,VWS V14.00,2013-03-24 06:02:00,
2013-03-24 02:03:00,27.0,23.1,30.01,East,84,1.0,3.0,85,0.00,,---,0.00,VWS V14.00,2013-03-24 06:03:00,
2013-03-24 02:05:00,26.9,23.0,30.01,East,84,1.0,3.0,85,0.00,,---,0.00,VWS V14.00,2013-03-24 06:05:00,
2013-03-24 02:09:00,26.7,22.8,30.01,East,84,2.0,3.0,85,0.00,,---,0.00,VWS V14.00,2013-03-24 06:09:00,
2013-03-24 02:11:00,26.6,22.7,30.01,East,84,1.0,3.0,85,0.00,,---,0.00,VWS V14.00,2013-03-24 06:11:00,
2013-03-24 02:12:00,26.5,22.9,30.01,East,84,1.0,3.0,86,0.00,,---,0.00,VWS V14.00,2013-03-24 06:12:00,
2013-03-24 02:15:00,26.4,22.8,30.01,East,84,0.0,3.0,86,0.00,,---,0.00,VWS V14.00,2013-03-24 06:15:00,
2013-03-24 02:17:00,26.4,22.8,30.01,East,84,1.0,3.0,86,0.00,,---,0.00,VWS V14.00,2013-03-24 06:17:00,
2013-03-24 02:18:00,26.4,22.8,30.01,East,84,1.0,3.0,86,0.00,,---,0.00,VWS V14.00,2013-03-24 06:18:00,
2013-03-24 02:20:00,26.4,22.8,30.01,East,84,0.0,3.0,86,0.00,,---,0.00,VWS V14.00,2013-03-24 06:20:00,
2013-03-24 02:22:00,26.4,22.8,30.01,East,84,0.0,3.0,86,0.00,,---,0.00,VWS V14.00,2013-03-24 06:22:00,
2013-03-24 02:24:00,26.3,22.7,30.01,East,84,1.0,3.0,86,0.00,,---,0.00,VWS V14.00,2013-03-24 06:24:00,
2013-03-24 02:25:00,26.3,22.7,30.01,East,84,1.0,3.0,86,0.00,,---,0.00,VWS V14.00,2013-03-24 06:25:00,
2013-03-24 02:26:00,26.3,22.7,30.01,East,84,1.0,3.0,86,0.00,,---,0.00,VWS V14.00,2013-03-24 06:26:00,
2013-03-24 02:28:00,26.3,22.7,30.01,East,84,1.0,3.0,86,0.00,,---,0.00,VWS V14.00,2013-03-24 06:28:00,
2013-03-24 02:29:00,26.3,22.7,30.01,East,84,1.0,2.0,86,0.00,,---,0.00,VWS V14.00,2013-03-24 06:29:00,
2013-03-24 02:32:00,26.2,22.9,30.01,East,84,1.0,2.0,87,0.00,,---,0.00,VWS V14.00,2013-03-24 06:32:00,
2013-03-24 02:34:00,26.2,22.9,30.01,East,84,1.0,2.0,87,0.00,,---,0.00,VWS V14.00,2013-03-24 06:34:00,
2013-03-24 02:35:00,26.2,22.9,30.01,East,84,1.0,2.0,87,0.00,,---,0.00,VWS V14.00,2013-03-24 06:35:00,
2013-03-24 02:37:00,26.1,22.8,30.01,East,84,1.0,2.0,87,0.00,,---,0.00,VWS V14.00,2013-03-24 06:37:00,
2013-03-24 02:40:00,26.1,22.8,30.01,East,84,1.0,3.0,87,0.00,,---,0.00,VWS V14.00,2013-03-24 06:40:00,
2013-03-24 02:41:00,26.0,22.7,30.01,East,84,1.0,3.0,87,0.00,,---,0.00,VWS V14.00,2013-03-24 06:41:00,
2013-03-24 02:42:00,26.0,22.7,30.01,East,84,0.0,3.0,87,0.00,,---,0.00,VWS V14.00,2013-03-24 06:42:00,
2013-03-24 02:45:00,25.9,22.6,30.01,East,84,0.0,3.0,87,0.00,,---,0.00,VWS V14.00,2013-03-24 06:45:00,
2013-03-24 02:48:00,25.8,22.5,30.01,East,84,0.0,3.0,87,0.00,,---,0.00,VWS V14.00,2013-03-24 06:48:00,
2013-03-24 02:49:00,25.8,22.5,30.01,East,84,1.0,3.0,87,0.00,,---,0.00,VWS V14.00,2013-03-24 06:49:00,
2013-03-24 02:50:00,25.8,22.5,30.01,East,84,1.0,3.0,87,0.00,,---,0.00,VWS V14.00,2013-03-24 06:50:00,
2013-03-24 02:51:00,25.8,22.5,30.01,East,84,1.0,3.0,87,0.00,,---,0.00,VWS V14.00,2013-03-24 06:51:00,
2013-03-24 02:53:00,25.8,22.5,30.01,East,84,1.0,3.0,87,0.00,,---,0.00,VWS V14.00,2013-03-24 06:53:00,
2013-03-24 02:55:00,25.8,22.5,30.01,East,84,1.0,3.0,87,0.00,,---,0.00,VWS V14.00,2013-03-24 06:55:00,
2013-03-24 02:57:00,25.7,22.4,30.01,East,84,1.0,3.0,87,0.00,,---,0.00,VWS V14.00,2013-03-24 06:57:00,
2013-03-24 03:00:00,25.7,22.6,30.00,East,84,0.0,1.0,88,0.00,,---,0.00,VWS V14.00,2013-03-24 07:00:00,
2013-03-24 03:01:00,25.7,22.6,30.00,East,84,1.0,1.0,88,0.00,,---,0.00,VWS V14.00,2013-03-24 07:01:00,
2013-03-24 03:04:00,25.9,22.8,30.00,East,84,0.0,2.0,88,0.00,,---,0.00,VWS V14.00,2013-03-24 07:04:00,
2013-03-24 03:05:00,26.0,22.9,30.00,East,84,0.0,2.0,88,0.00,,---,0.00,VWS V14.00,2013-03-24 07:05:00,
2013-03-24 03:06:00,26.1,23.0,30.00,East,84,1.0,2.0,88,0.00,,---,0.00,VWS V14.00,2013-03-24 07:06:00,
2013-03-24 03:08:00,26.2,23.1,30.00,East,84,1.0,2.0,88,0.00,,---,0.00,VWS V14.00,2013-03-24 07:08:00,
2013-03-24 03:11:00,26.6,23.8,30.00,East,84,0.0,2.0,89,0.00,,---,0.00,VWS V14.00,2013-03-24 07:11:00,
2013-03-24 03:12:00,26.7,23.6,30.00,East,84,0.0,2.0,88,0.00,,---,0.00,VWS V14.00,2013-03-24 07:12:00,
2013-03-24 03:13:00,26.7,23.9,30.00,East,84,0.0,2.0,89,0.00,,---,0.00,VWS V14.00,2013-03-24 07:13:00,
2013-03-24 03:14:00,26.8,24.0,30.00,East,84,2.0,2.0,89,0.00,,---,0.00,VWS V14.00,2013-03-24 07:14:00,
2013-03-24 03:17:00,26.7,23.9,29.99,East,84,2.0,3.0,89,0.00,,---,0.00,VWS V14.00,2013-03-24 07:17:00,
2013-03-24 03:18:00,26.7,23.6,29.99,East,84,1.0,3.0,88,0.00,,---,0.00,VWS V14.00,2013-03-24 07:18:00,
2013-03-24 03:19:00,26.6,23.5,29.99,East,84,2.0,3.0,88,0.00,,---,0.00,VWS V14.00,2013-03-24 07:19:00,
2013-03-24 03:20:00,26.6,23.5,29.99,East,84,0.0,3.0,88,0.00,,---,0.00,VWS V14.00,2013-03-24 07:20:00,
2013-03-24 03:24:00,26.5,23.7,29.99,East,84,1.0,3.0,89,0.00,,---,0.00,VWS V14.00,2013-03-24 07:24:00,
2013-03-24 03:26:00,26.5,23.7,29.99,East,84,1.0,3.0,89,0.00,,---,0.00,VWS V14.00,2013-03-24 07:26:00,
2013-03-24 03:29:00,26.5,23.7,29.99,East,84,1.0,2.0,89,0.00,,---,0.00,VWS V14.00,2013-03-24 07:29:00,
2013-03-24 03:30:00,26.4,23.6,29.99,East,84,1.0,2.0,89,0.00,,---,0.00,VWS V14.00,2013-03-24 07:30:00,
2013-03-24 03:31:00,26.4,23.6,29.99,East,84,1.0,2.0,89,0.00,,---,0.00,VWS V14.00,2013-03-24 07:31:00,
2013-03-24 03:32:00,26.3,23.5,29.99,East,84,2.0,2.0,89,0.00,,---,0.00,VWS V14.00,2013-03-24 07:32:00,
2013-03-24 03:35:00,26.3,23.5,29.99,East,84,1.0,3.0,89,0.00,,---,0.00,VWS V14.00,2013-03-24 07:35:00,
2013-03-24 03:36:00,26.2,23.4,29.99,East,84,1.0,3.0,89,0.00,,---,0.00,VWS V14.00,2013-03-24 07:36:00,
2013-03-24 03:37:00,26.2,23.4,29.99,East,84,1.0,3.0,89,0.00,,---,0.00,VWS V14.00,2013-03-24 07:37:00,
2013-03-24 03:40:00,26.0,23.2,29.99,East,84,1.0,3.0,89,0.00,,---,0.00,VWS V14.00,2013-03-24 07:40:00,
2013-03-24 03:42:00,25.9,23.1,29.99,East,84,0.0,3.0,89,0.00,,---,0.00,VWS V14.00,2013-03-24 07:42:00,
2013-03-24 03:43:00,25.9,23.1,29.99,East,84,0.0,3.0,89,0.00,,---,0.00,VWS V14.00,2013-03-24 07:43:00,
2013-03-24 03:47:00,25.7,22.9,29.99,East,83,0.0,3.0,89,0.00,,---,0.00,VWS V14.00,2013-03-24 07:47:00,
2013-03-24 03:48:00,25.7,22.9,29.99,East,83,1.0,3.0,89,0.00,,---,0.00,VWS V14.00,2013-03-24 07:48:00,
2013-03-24 03:52:00,25.6,22.8,29.99,East,83,0.0,3.0,89,0.00,,---,0.00,VWS V14.00,2013-03-24 07:52:00,
2013-03-24 03:54:00,25.6,22.8,29.99,East,84,1.0,3.0,89,0.00,,---,0.00,VWS V14.00,2013-03-24 07:54:00,
2013-03-24 03:56:00,25.6,22.8,29.99,East,83,0.0,3.0,89,0.00,,---,0.00,VWS V14.00,2013-03-24 07:56:00,
2013-03-24 03:59:00,25.6,22.8,29.99,East,84,0.0,1.0,89,0.00,,---,0.00,VWS V14.00,2013-03-24 07:59:00,
2013-03-24 04:00:00,25.6,22.8,29.99,East,83,0.0,1.0,89,0.00,,---,0.00,VWS V14.00,2013-03-24 08:00:00,
2013-03-24 04:01:00,25.5,22.7,29.99,East,84,0.0,2.0,89,0.00,,---,0.00,VWS V14.00,2013-03-24 08:01:00,
2013-03-24 04:02:00,25.6,22.8,29.99,East,83,0.0,2.0,89,0.00,,---,0.00,VWS V14.00,2013-03-24 08:02:00,
2013-03-24 04:06:00,25.6,22.8,29.99,East,84,1.0,2.0,89,0.00,,---,0.00,VWS V14.00,2013-03-24 08:06:00,
2013-03-24 04:08:00,25.7,22.9,29.99,East,84,2.0,3.0,89,0.00,,---,0.00,VWS V14.00,2013-03-24 08:08:00,
2013-03-24 04:11:00,25.8,23.0,29.99,East,84,0.0,3.0,89,0.00,,---,0.00,VWS V14.00,2013-03-24 08:11:00,
2013-03-24 04:13:00,25.8,23.0,29.99,East,83,1.0,3.0,89,0.00,,---,0.00,VWS V14.00,2013-03-24 08:13:00,
2013-03-24 04:14:00,25.9,23.1,29.99,East,84,1.0,3.0,89,0.00,,---,0.00,VWS V14.00,2013-03-24 08:14:00,
2013-03-24 04:16:00,25.9,23.1,29.99,East,84,1.0,3.0,89,0.00,,---,0.00,VWS V14.00,2013-03-24 08:16:00,
2013-03-24 04:18:00,25.9,23.1,29.99,East,83,1.0,3.0,89,0.00,,---,0.00,VWS V14.00,2013-03-24 08:18:00,
2013-03-24 04:20:00,25.9,23.1,29.99,East,83,2.0,3.0,89,0.00,,---,0.00,VWS V14.00,2013-03-24 08:20:00,
2013-03-24 04:21:00,25.9,23.1,29.99,East,84,1.0,3.0,89,0.00,,---,0.00,VWS V14.00,2013-03-24 08:21:00,
2013-03-24 04:24:00,25.9,23.1,29.98,East,84,0.0,3.0,89,0.00,,---,0.00,VWS V14.00,2013-03-24 08:24:00,
2013-03-24 04:26:00,25.9,23.1,29.99,East,84,1.0,3.0,89,0.00,,---,0.00,VWS V14.00,2013-03-24 08:26:00,
2013-03-24 04:27:00,25.9,23.1,29.98,East,84,0.0,3.0,89,0.00,,---,0.00,VWS V14.00,2013-03-24 08:27:00,
2013-03-24 04:31:00,26.0,23.2,29.98,East,83,1.0,2.0,89,0.00,,---,0.00,VWS V14.00,2013-03-24 08:31:00,
2013-03-24 04:32:00,26.0,23.2,29.98,East,84,0.0,2.0,89,0.00,,---,0.00,VWS V14.00,2013-03-24 08:32:00,
2013-03-24 04:37:00,26.1,23.3,29.98,East,84,2.0,2.0,89,0.00,,---,0.00,VWS V14.00,2013-03-24 08:37:00,
2013-03-24 04:38:00,26.1,23.3,29.98,East,84,1.0,2.0,89,0.00,,---,0.00,VWS V14.00,2013-03-24 08:38:00,
2013-03-24 04:43:00,26.2,23.4,29.98,East,83,0.0,2.0,89,0.00,,---,0.00,VWS V14.00,2013-03-24 08:43:00,
2013-03-24 04:44:00,26.2,23.4,29.98,East,83,0.0,2.0,89,0.00,,---,0.00,VWS V14.00,2013-03-24 08:44:00,
2013-03-24 04:49:00,26.3,23.5,29.98,East,84,0.0,2.0,89,0.00,,---,0.00,VWS V14.00,2013-03-24 08:49:00,
2013-03-24 04:50:00,26.2,23.4,29.98,East,84,0.0,2.0,89,0.00,,---,0.00,VWS V14.00,2013-03-24 08:50:00,
2013-03-24 04:52:00,26.3,23.5,29.98,East,83,0.0,2.0,89,0.00,,---,0.00,VWS V14.00,2013-03-24 08:52:00,
2013-03-24 04:54:00,26.3,23.5,29.98,East,83,1.0,2.0,89,0.00,,---,0.00,VWS V14.00,2013-03-24 08:54:00,
2013-03-24 04:55:00,26.3,23.5,29.98,East,83,1.0,2.0,89,0.00,,---,0.00,VWS V14.00,2013-03-24 08:55:00,
2013-03-24 05:00:00,26.5,23.7,29.98,East,84,1.0,2.0,89,0.00,,---,0.00,VWS V14.00,2013-03-24 09:00:00,
2013-03-24 05:01:00,26.5,23.7,29.98,East,84,0.0,2.0,89,0.00,,---,0.00,VWS V14.00,2013-03-24 09:01:00,
2013-03-24 05:02:00,26.5,23.7,29.98,East,83,0.0,2.0,89,0.00,,---,0.00,VWS V14.00,2013-03-24 09:02:00,
2013-03-24 05:05:00,26.6,23.8,29.98,East,83,0.0,2.0,89,0.00,,---,0.00,VWS V14.00,2013-03-24 09:05:00,
2013-03-24 05:06:00,26.6,23.8,29.98,East,84,1.0,2.0,89,0.00,,---,0.00,VWS V14.00,2013-03-24 09:06:00,
2013-03-24 05:08:00,26.7,23.9,29.98,East,84,1.0,2.0,89,0.00,,---,0.00,VWS V14.00,2013-03-24 09:08:00,
2013-03-24 05:11:00,26.9,24.1,29.98,East,84,0.0,2.0,89,0.00,,---,0.00,VWS V14.00,2013-03-24 09:11:00,
2013-03-24 05:14:00,26.9,24.1,29.97,East,84,0.0,2.0,89,0.00,,---,0.00,VWS V14.00,2013-03-24 09:14:00,
2013-03-24 05:17:00,27.0,24.2,29.98,East,84,0.0,2.0,89,0.00,,---,0.00,VWS V14.00,2013-03-24 09:17:00,
2013-03-24 05:18:00,27.0,24.2,29.98,East,84,0.0,2.0,89,0.00,,---,0.00,VWS V14.00,2013-03-24 09:18:00,
2013-03-24 05:20:00,27.0,24.2,29.98,East,84,0.0,2.0,89,0.00,,---,0.00,VWS V14.00,2013-03-24 09:20:00,
2013-03-24 05:22:00,27.0,24.2,29.98,East,84,0.0,2.0,89,0.00,,---,0.00,VWS V14.00,2013-03-24 09:22:00,
2013-03-24 05:23:00,27.0,24.2,29.98,East,84,0.0,2.0,89,0.00,,---,0.00,VWS V14.00,2013-03-24 09:23:00,
2013-03-24 05:24:00,27.0,24.2,29.98,East,83,1.0,2.0,89,0.00,,---,0.00,VWS V14.00,2013-03-24 09:24:00,
2013-03-24 05:25:00,27.0,24.2,29.98,East,84,0.0,2.0,89,0.00,,---,0.00,VWS V14.00,2013-03-24 09:25:00,
2013-03-24 05:27:00,27.0,24.2,29.98,East,83,0.0,2.0,89,0.00,,---,0.00,VWS V14.00,2013-03-24 09:27:00,
2013-03-24 05:28:00,27.0,24.2,29.98,East,84,1.0,2.0,89,0.00,,---,0.00,VWS V14.00,2013-03-24 09:28:00,
2013-03-24 05:31:00,27.0,24.2,29.98,East,83,0.0,1.0,89,0.00,,---,0.00,VWS V14.00,2013-03-24 09:31:00,
2013-03-24 05:32:00,27.0,24.2,29.98,East,84,0.0,1.0,89,0.00,,---,0.00,VWS V14.00,2013-03-24 09:32:00,
2013-03-24 05:34:00,27.0,24.2,29.98,East,84,0.0,1.0,89,0.00,,---,0.00,VWS V14.00,2013-03-24 09:34:00,
2013-03-24 05:35:00,27.0,24.2,29.98,East,83,0.0,1.0,89,0.00,,---,0.00,VWS V14.00,2013-03-24 09:35:00,
2013-03-24 05:37:00,27.0,23.9,29.98,East,84,0.0,1.0,88,0.00,,---,0.00,VWS V14.00,2013-03-24 09:37:00,
2013-03-24 05:38:00,27.0,23.9,29.98,East,84,0.0,1.0,88,0.00,,---,0.00,VWS V14.00,2013-03-24 09:38:00,
2013-03-24 05:39:00,27.0,24.2,29.98,East,83,0.0,1.0,89,0.00,,---,0.00,VWS V14.00,2013-03-24 09:39:00,
2013-03-24 05:41:00,27.1,24.3,29.98,East,84,0.0,1.0,89,0.00,,---,0.00,VWS V14.00,2013-03-24 09:41:00,
2013-03-24 05:42:00,27.1,24.0,29.97,East,83,0.0,1.0,88,0.00,,---,0.00,VWS V14.00,2013-03-24 09:42:00,
2013-03-24 05:44:00,27.2,24.1,29.98,East,84,0.0,1.0,88,0.00,,---,0.00,VWS V14.00,2013-03-24 09:44:00,
2013-03-24 05:45:00,27.2,24.1,29.98,East,84,0.0,1.0,88,0.00,,---,0.00,VWS V14.00,2013-03-24 09:45:00,
2013-03-24 05:46:00,27.3,24.2,29.98,East,84,0.0,1.0,88,0.00,,---,0.00,VWS V14.00,2013-03-24 09:46:00,
2013-03-24 05:48:00,27.3,24.2,29.97,East,84,0.0,1.0,88,0.00,,---,0.00,VWS V14.00,2013-03-24 09:48:00,
2013-03-24 05:50:00,27.4,24.3,29.97,East,83,1.0,2.0,88,0.00,,---,0.00,VWS V14.00,2013-03-24 09:50:00,
2013-03-24 05:53:00,27.5,24.4,29.97,East,83,1.0,2.0,88,0.00,,---,0.00,VWS V14.00,2013-03-24 09:53:00,
2013-03-24 05:55:00,27.5,24.4,29.97,East,84,0.0,2.0,88,0.00,,---,0.00,VWS V14.00,2013-03-24 09:55:00,
2013-03-24 05:56:00,27.5,24.4,29.97,East,83,0.0,2.0,88,0.00,,---,0.00,VWS V14.00,2013-03-24 09:56:00,
2013-03-24 05:59:00,27.5,24.4,29.96,East,83,0.0,1.0,88,0.00,,---,0.00,VWS V14.00,2013-03-24 09:59:00,
2013-03-24 06:02:00,27.6,24.5,29.97,East,84,0.0,1.0,88,0.00,,---,0.00,VWS V14.00,2013-03-24 10:02:00,
2013-03-24 06:03:00,27.6,24.5,29.97,East,84,0.0,1.0,88,0.00,,---,0.00,VWS V14.00,2013-03-24 10:03:00,
2013-03-24 06:04:00,27.6,24.5,29.96,East,84,1.0,1.0,88,0.00,,---,0.00,VWS V14.00,2013-03-24 10:04:00,
2013-03-24 06:07:00,27.7,24.6,29.96,East,84,1.0,1.0,88,0.00,,---,0.00,VWS V14.00,2013-03-24 10:07:00,
2013-03-24 06:08:00,27.7,24.6,29.96,East,84,0.0,1.0,88,0.00,,---,0.00,VWS V14.00,2013-03-24 10:08:00,
2013-03-24 06:09:00,27.7,24.6,29.96,East,84,1.0,1.0,88,0.00,,---,0.00,VWS V14.00,2013-03-24 10:09:00,
2013-03-24 06:12:00,27.7,24.6,29.96,East,84,0.0,1.0,88,0.00,,---,0.00,VWS V14.00,2013-03-24 10:12:00,
2013-03-24 06:14:00,27.8,24.7,29.96,East,84,0.0,1.0,88,0.00,,---,0.00,VWS V14.00,2013-03-24 10:14:00,
2013-03-24 06:15:00,27.8,24.7,29.96,East,84,0.0,1.0,88,0.00,,---,0.00,VWS V14.00,2013-03-24 10:15:00,
2013-03-24 06:18:00,27.8,24.7,29.96,East,85,1.0,2.0,88,0.00,,---,0.00,VWS V14.00,2013-03-24 10:18:00,
2013-03-24 06:19:00,27.9,24.8,29.95,East,85,0.0,2.0,88,0.00,,---,0.00,VWS V14.00,2013-03-24 10:19:00,
2013-03-24 06:20:00,27.9,24.8,29.95,East,85,0.0,2.0,88,0.00,,---,0.00,VWS V14.00,2013-03-24 10:20:00,
2013-03-24 06:25:00,28.1,25.0,29.95,East,85,1.0,2.0,88,0.00,,---,0.00,VWS V14.00,2013-03-24 10:25:00,
2013-03-24 06:26:00,28.2,25.1,29.95,East,86,0.0,2.0,88,0.00,,---,0.00,VWS V14.00,2013-03-24 10:26:00,
2013-03-24 06:28:00,28.3,24.9,29.95,East,86,0.0,2.0,87,0.00,,---,0.00,VWS V14.00,2013-03-24 10:28:00,
2013-03-24 06:31:00,28.4,25.0,29.95,East,86,0.0,1.0,87,0.00,,---,0.00,VWS V14.00,2013-03-24 10:31:00,
2013-03-24 06:32:00,28.4,25.0,29.95,East,86,1.0,1.0,87,0.00,,---,0.00,VWS V14.00,2013-03-24 10:32:00,
2013-03-24 06:34:00,28.5,25.1,29.95,East,86,1.0,2.0,87,0.00,,---,0.00,VWS V14.00,2013-03-24 10:34:00,
2013-03-24 06:36:00,28.5,25.1,29.95,East,86,0.0,2.0,87,0.00,,---,0.00,VWS V14.00,2013-03-24 10:36:00,
2013-03-24 06:37:00,28.6,25.2,29.95,East,86,1.0,2.0,87,0.00,,---,0.00,VWS V14.00,2013-03-24 10:37:00,
2013-03-24 06:39:00,28.7,25.0,29.95,East,87,1.0,3.0,86,0.00,,---,0.00,VWS V14.00,2013-03-24 10:39:00,
2013-03-24 06:41:00,28.8,25.1,29.95,East,88,2.0,3.0,86,0.00,,---,0.00,VWS V14.00,2013-03-24 10:41:00,
2013-03-24 06:43:00,28.9,25.2,29.95,East,88,2.0,3.0,86,0.00,,---,0.00,VWS V14.00,2013-03-24 10:43:00,
2013-03-24 06:45:00,28.9,25.2,29.95,East,85,2.0,4.0,86,0.00,,---,0.00,VWS V14.00,2013-03-24 10:45:00,
2013-03-24 06:47:00,29.0,25.4,29.94,East,83,3.0,4.0,86,0.00,,---,0.00,VWS V14.00,2013-03-24 10:47:00,
2013-03-24 06:50:00,29.0,25.4,29.95,East,83,2.0,4.0,86,0.00,,---,0.00,VWS V14.00,2013-03-24 10:50:00,
2013-03-24 06:52:00,29.0,25.1,29.94,East,84,2.0,4.0,85,0.00,,---,0.00,VWS V14.00,2013-03-24 10:52:00,
2013-03-24 06:55:00,29.0,25.1,29.94,East,82,1.0,4.0,85,0.00,,---,0.00,VWS V14.00,2013-03-24 10:55:00,
2013-03-24 06:56:00,29.0,25.1,29.94,East,84,1.0,4.0,85,0.00,,---,0.00,VWS V14.00,2013-03-24 10:56:00,
2013-03-24 06:58:00,29.0,25.1,29.94,East,88,3.0,4.0,85,0.00,,---,0.00,VWS V14.00,2013-03-24 10:58:00,
2013-03-24 06:59:00,29.1,25.2,29.94,East,82,1.0,4.0,85,0.00,,---,0.00,VWS V14.00,2013-03-24 10:59:00,
2013-03-24 07:01:00,29.1,25.2,29.94,East,81,1.0,4.0,85,0.00,,---,0.00,VWS V14.00,2013-03-24 11:01:00,
2013-03-24 07:02:00,29.1,25.2,29.94,East,80,0.0,4.0,85,0.00,,---,0.00,VWS V14.00,2013-03-24 11:02:00,
2013-03-24 07:03:00,29.1,25.2,29.95,East,81,1.0,4.0,85,0.00,,---,0.00,VWS V14.00,2013-03-24 11:03:00,
2013-03-24 07:04:00,29.1,25.2,29.95,East,82,2.0,4.0,85,0.00,,---,0.00,VWS V14.00,2013-03-24 11:04:00,
2013-03-24 07:07:00,29.1,25.2,29.95,East,82,2.0,4.0,85,0.00,,---,0.00,VWS V14.00,2013-03-24 11:07:00,
2013-03-24 07:08:00,29.1,25.2,29.95,East,82,1.0,4.0,85,0.00,,---,0.00,VWS V14.00,2013-03-24 11:08:00,
2013-03-24 07:10:00,29.1,25.2,29.95,East,83,2.0,4.0,85,0.00,,---,0.00,VWS V14.00,2013-03-24 11:10:00,
2013-03-24 07:12:00,29.1,24.9,29.95,East,83,1.0,4.0,84,0.00,,---,0.00,VWS V14.00,2013-03-24 11:12:00,
2013-03-24 07:13:00,29.1,24.9,29.94,East,83,0.0,4.0,84,0.00,,---,0.00,VWS V14.00,2013-03-24 11:13:00,
2013-03-24 07:14:00,29.1,24.9,29.94,East,83,1.0,4.0,84,0.00,,---,0.00,VWS V14.00,2013-03-24 11:14:00,
2013-03-24 07:17:00,29.1,24.9,29.94,East,83,1.0,4.0,84,0.00,,---,0.00,VWS V14.00,2013-03-24 11:17:00,
2013-03-24 07:18:00,29.1,24.9,29.94,East,83,1.0,4.0,84,0.00,,---,0.00,VWS V14.00,2013-03-24 11:18:00,
2013-03-24 07:20:00,29.1,24.9,29.94,East,83,1.0,4.0,84,0.00,,---,0.00,VWS V14.00,2013-03-24 11:20:00,
2013-03-24 07:23:00,29.1,24.9,29.94,East,83,2.0,4.0,84,0.00,,---,0.00,VWS V14.00,2013-03-24 11:23:00,
2013-03-24 07:24:00,29.1,24.9,29.94,East,83,1.0,4.0,84,0.00,,---,0.00,VWS V14.00,2013-03-24 11:24:00,
2013-03-24 07:26:00,29.2,25.0,29.94,East,83,1.0,4.0,84,0.00,,---,0.00,VWS V14.00,2013-03-24 11:26:00,
2013-03-24 07:28:00,29.2,25.0,29.94,East,83,1.0,1.0,84,0.00,,---,0.00,VWS V14.00,2013-03-24 11:28:00,
2013-03-24 07:29:00,29.2,25.0,29.94,East,83,1.0,1.0,84,0.00,,---,0.00,VWS V14.00,2013-03-24 11:29:00,
2013-03-24 07:30:00,29.2,25.0,29.94,East,83,1.0,1.0,84,0.00,,---,0.00,VWS V14.00,2013-03-24 11:30:00,
2013-03-24 07:32:00,29.2,25.0,29.94,East,83,0.0,2.0,84,0.00,,---,0.00,VWS V14.00,2013-03-24 11:32:00,
2013-03-24 07:34:00,29.3,25.1,29.94,East,83,2.0,2.0,84,0.00,,---,0.00,VWS V14.00,2013-03-24 11:34:00,
2013-03-24 07:35:00,29.2,25.0,29.93,East,83,1.0,2.0,84,0.00,,---,0.00,VWS V14.00,2013-03-24 11:35:00,
2013-03-24 07:37:00,29.3,25.1,29.94,East,82,0.0,3.0,84,0.00,,---,0.00,VWS V14.00,2013-03-24 11:37:00,
2013-03-24 07:38:00,29.3,25.1,29.94,East,82,1.0,3.0,84,0.00,,---,0.00,VWS V14.00,2013-03-24 11:38:00,
2013-03-24 07:39:00,29.3,25.1,29.94,East,82,0.0,3.0,84,0.00,,---,0.00,VWS V14.00,2013-03-24 11:39:00,
2013-03-24 07:40:00,29.3,25.1,29.94,East,82,1.0,3.0,84,0.00,,---,0.00,VWS V14.00,2013-03-24 11:40:00,
2013-03-24 07:43:00,29.2,25.0,29.94,East,83,2.0,4.0,84,0.00,,---,0.00,VWS V14.00,2013-03-24 11:43:00,
2013-03-24 07:44:00,29.3,25.1,29.93,East,83,1.0,4.0,84,0.00,,---,0.00,VWS V14.00,2013-03-24 11:44:00,
2013-03-24 07:45:00,29.2,25.0,29.93,East,83,2.0,4.0,84,0.00,,---,0.00,VWS V14.00,2013-03-24 11:45:00,
2013-03-24 07:49:00,29.3,25.1,29.93,East,82,1.0,4.0,84,0.00,,---,0.00,VWS V14.00,2013-03-24 11:49:00,
2013-03-24 07:50:00,29.3,25.1,29.93,East,82,1.0,4.0,84,0.00,,---,0.00,VWS V14.00,2013-03-24 11:50:00,
2013-03-24 07:51:00,29.3,25.1,29.93,East,82,0.0,4.0,84,0.00,,---,0.00,VWS V14.00,2013-03-24 11:51:00,
2013-03-24 07:54:00,29.3,25.1,29.93,East,84,2.0,4.0,84,0.00,,---,0.00,VWS V14.00,2013-03-24 11:54:00,
2013-03-24 07:55:00,29.3,25.1,29.93,East,84,1.0,4.0,84,0.00,,---,0.00,VWS V14.00,2013-03-24 11:55:00,
2013-03-24 07:56:00,29.3,25.1,29.93,East,84,2.0,4.0,84,0.00,,---,0.00,VWS V14.00,2013-03-24 11:56:00,
2013-03-24 07:57:00,29.3,25.1,29.93,East,84,1.0,4.0,84,0.00,,---,0.00,VWS V14.00,2013-03-24 11:57:00,
2013-03-24 08:01:00,29.3,25.1,29.92,East,84,0.0,2.0,84,0.00,,---,0.00,VWS V14.00,2013-03-24 12:01:00,
2013-03-24 08:02:00,29.3,25.1,29.92,East,84,1.0,2.0,84,0.00,,---,0.00,VWS V14.00,2013-03-24 12:02:00,
2013-03-24 08:03:00,29.3,25.1,29.92,East,84,1.0,2.0,84,0.00,,---,0.00,VWS V14.00,2013-03-24 12:03:00,
2013-03-24 08:06:00,29.3,25.1,29.92,East,82,1.0,3.0,84,0.00,,---,0.00,VWS V14.00,2013-03-24 12:06:00,
2013-03-24 08:08:00,29.3,25.1,29.92,East,82,3.0,3.0,84,0.00,,---,0.00,VWS V14.00,2013-03-24 12:08:00,
2013-03-24 08:09:00,29.3,25.1,29.92,East,82,2.0,3.0,84,0.00,,---,0.00,VWS V14.00,2013-03-24 12:09:00,
2013-03-24 08:10:00,29.3,25.1,29.92,East,82,0.0,3.0,84,0.00,,---,0.00,VWS V14.00,2013-03-24 12:10:00,
2013-03-24 08:14:00,29.4,25.2,29.92,East,84,1.0,3.0,84,0.00,,---,0.00,VWS V14.00,2013-03-24 12:14:00,
2013-03-24 08:15:00,29.4,25.2,29.92,East,84,2.0,3.0,84,0.00,,---,0.00,VWS V14.00,2013-03-24 12:15:00,
2013-03-24 08:19:00,29.5,25.3,29.92,East,83,2.0,4.0,84,0.00,,---,0.00,VWS V14.00,2013-03-24 12:19:00,
2013-03-24 08:20:00,29.4,25.2,29.92,ENE,70,1.0,4.0,84,0.00,,---,0.00,VWS V14.00,2013-03-24 12:20:00,
2013-03-24 08:22:00,29.4,25.2,29.92,ENE,74,1.0,4.0,84,0.00,,---,0.00,VWS V14.00,2013-03-24 12:22:00,
2013-03-24 08:25:00,29.5,25.3,29.92,East,80,1.0,4.0,84,0.00,,---,0.00,VWS V14.00,2013-03-24 12:25:00,
2013-03-24 08:27:00,29.5,25.3,29.92,East,82,2.0,4.0,84,0.00,,---,0.00,VWS V14.00,2013-03-24 12:27:00,
2013-03-24 08:30:00,29.5,25.3,29.92,East,81,2.0,3.0,84,0.00,,---,0.00,VWS V14.00,2013-03-24 12:30:00,
2013-03-24 08:32:00,29.6,25.4,29.92,East,80,1.0,3.0,84,0.00,,---,0.00,VWS V14.00,2013-03-24 12:32:00,
2013-03-24 08:33:00,29.6,25.4,29.92,East,82,2.0,3.0,84,0.00,,---,0.00,VWS V14.00,2013-03-24 12:33:00,
2013-03-24 08:36:00,29.6,25.4,29.92,ENE,77,3.0,5.0,84,0.00,,---,0.00,VWS V14.00,2013-03-24 12:36:00,
2013-03-24 08:37:00,29.6,25.4,29.92,ENE,78,1.0,5.0,84,0.00,,---,0.00,VWS V14.00,2013-03-24 12:37:00,
2013-03-24 08:38:00,29.7,25.5,29.92,ENE,78,1.0,5.0,84,0.00,,---,0.00,VWS V14.00,2013-03-24 12:38:00,
2013-03-24 08:43:00,29.7,25.5,29.92,ENE,76,2.0,5.0,84,0.00,,---,0.00,VWS V14.00,2013-03-24 12:43:00,
2013-03-24 08:44:00,29.8,25.6,29.92,ENE,77,1.0,5.0,84,0.00,,---,0.00,VWS V14.00,2013-03-24 12:44:00,
2013-03-24 08:46:00,29.8,25.6,29.92,ENE,77,2.0,5.0,84,0.00,,---,0.00,VWS V14.00,2013-03-24 12:46:00,
2013-03-24 08:48:00,29.8,25.6,29.92,ENE,61,2.0,5.0,84,0.00,,---,0.00,VWS V14.00,2013-03-24 12:48:00,
2013-03-24 08:49:00,29.9,25.7,29.92,ENE,63,4.0,5.0,84,0.00,,---,0.00,VWS V14.00,2013-03-24 12:49:00,
2013-03-24 08:50:00,29.9,25.7,29.92,ENE,76,2.0,5.0,84,0.00,,---,0.00,VWS V14.00,2013-03-24 12:50:00,
2013-03-24 08:51:00,29.9,25.7,29.92,ENE,76,0.0,5.0,84,0.00,,---,0.00,VWS V14.00,2013-03-24 12:51:00,
2013-03-24 08:54:00,29.9,25.7,29.92,ENE,77,1.0,5.0,84,0.00,,---,0.00,VWS V14.00,2013-03-24 12:54:00,
2013-03-24 08:58:00,29.9,25.7,29.92,ENE,78,0.0,5.0,84,0.00,,---,0.00,VWS V14.00,2013-03-24 12:58:00,
2013-03-24 09:00:00,29.9,25.4,29.92,ENE,78,1.0,3.0,83,0.00,,---,0.00,VWS V14.00,2013-03-24 13:00:00,
2013-03-24 09:03:00,30.1,25.9,29.92,ENE,74,2.0,4.0,84,0.00,,---,0.00,VWS V14.00,2013-03-24 13:03:00,
2013-03-24 09:05:00,30.1,25.6,29.92,East,84,0.0,4.0,83,0.00,,---,0.00,VWS V14.00,2013-03-24 13:05:00,
2013-03-24 09:06:00,30.1,25.6,29.92,East,86,3.0,4.0,83,0.00,,---,0.00,VWS V14.00,2013-03-24 13:06:00,
2013-03-24 09:09:00,30.1,25.6,29.92,ENE,78,2.0,4.0,83,0.00,,---,0.00,VWS V14.00,2013-03-24 13:09:00,
2013-03-24 09:11:00,30.2,25.7,29.92,ENE,78,2.0,4.0,83,0.00,,---,0.00,VWS V14.00,2013-03-24 13:11:00,
2013-03-24 09:12:00,30.2,25.7,29.92,ENE,78,0.0,4.0,83,0.00,,---,0.00,VWS V14.00,2013-03-24 13:12:00,
2013-03-24 09:16:00,30.4,25.9,29.92,ENE,71,3.0,4.0,83,0.00,,---,0.00,VWS V14.00,2013-03-24 13:16:00,
2013-03-24 09:17:00,30.3,25.8,29.92,ENE,71,2.0,4.0,83,0.00,,---,0.00,VWS V14.00,2013-03-24 13:17:00,
2013-03-24 09:18:00,30.5,26.0,29.92,ENE,71,1.0,4.0,83,0.00,,---,0.00,VWS V14.00,2013-03-24 13:18:00,
2013-03-24 09:23:00,30.6,26.1,29.92,ENE,74,2.0,4.0,83,0.00,,---,0.00,VWS V14.00,2013-03-24 13:23:00,
2013-03-24 09:24:00,30.6,26.1,29.92,ENE,74,1.0,4.0,83,0.00,,---,0.00,VWS V14.00,2013-03-24 13:24:00,
2013-03-24 09:26:00,30.6,26.1,29.92,ENE,71,2.0,4.0,83,0.00,,---,0.00,VWS V14.00,2013-03-24 13:26:00,
2013-03-24 09:27:00,30.6,26.1,29.92,ENE,71,1.0,4.0,83,0.00,,---,0.00,VWS V14.00,2013-03-24 13:27:00,
2013-03-24 09:28:00,30.7,26.2,29.92,ENE,71,2.0,2.0,83,0.00,,---,0.00,VWS V14.00,2013-03-24 13:28:00,
2013-03-24 09:29:00,30.7,26.2,29.92,ENE,71,2.0,2.0,83,0.00,,---,0.00,VWS V14.00,2013-03-24 13:29:00,
2013-03-24 09:33:00,30.7,26.2,29.92,ENE,72,1.0,3.0,83,0.00,,---,0.00,VWS V14.00,2013-03-24 13:33:00,
2013-03-24 09:34:00,30.7,26.2,29.92,ENE,72,1.0,3.0,83,0.00,,---,0.00,VWS V14.00,2013-03-24 13:34:00,
2013-03-24 09:36:00,30.8,26.3,29.92,ENE,71,2.0,5.0,83,0.00,,---,0.00,VWS V14.00,2013-03-24 13:36:00,
2013-03-24 09:38:00,30.8,26.3,29.91,East,79,2.0,5.0,83,0.00,,---,0.00,VWS V14.00,2013-03-24 13:38:00,
2013-03-24 09:40:00,30.9,26.4,29.91,East,79,2.0,5.0,83,0.00,,---,0.00,VWS V14.00,2013-03-24 13:40:00,
2013-03-24 09:42:00,30.9,26.1,29.91,East,92,3.0,6.0,82,0.00,,---,0.00,VWS V14.00,2013-03-24 13:42:00,
2013-03-24 09:43:00,30.9,26.1,29.91,ENE,78,2.0,6.0,82,0.00,,---,0.00,VWS V14.00,2013-03-24 13:43:00,
2013-03-24 09:44:00,30.9,26.1,29.91,East,84,2.0,6.0,82,0.00,,---,0.00,VWS V14.00,2013-03-24 13:44:00,
2013-03-24 09:45:00,30.9,26.1,29.91,ENE,74,3.0,6.0,82,0.00,,---,0.00,VWS V14.00,2013-03-24 13:45:00,
2013-03-24 09:48:00,30.9,26.1,29.91,ENE,69,3.0,6.0,82,0.00,,---,0.00,VWS V14.00,2013-03-24 13:48:00,
2013-03-24 09:50:00,30.9,26.1,29.91,East,93,2.0,6.0,82,0.00,,---,0.00,VWS V14.00,2013-03-24 13:50:00,
2013-03-24 09:52:00,30.9,26.1,29.91,East,92,1.0,6.0,82,0.00,,---,0.00,VWS V14.00,2013-03-24 13:52:00,
2013-03-24 09:56:00,31.0,26.2,29.91,East,88,1.0,6.0,82,0.00,,---,0.00,VWS V14.00,2013-03-24 13:56:00,
2013-03-24 09:57:00,31.0,26.2,29.91,East,88,3.0,6.0,82,0.00,,---,0.00,VWS V14.00,2013-03-24 13:57:00,
2013-03-24 09:58:00,31.0,26.2,29.91,East,89,3.0,6.0,82,0.00,,---,0.00,VWS V14.00,2013-03-24 13:58:00,
2013-03-24 10:03:00,31.1,26.3,29.91,East,100,2.0,4.0,82,0.00,,---,0.00,VWS V14.00,2013-03-24 14:03:00,
2013-03-24 10:05:00,31.1,26.3,29.91,East,101,2.0,4.0,82,0.00,,---,0.00,VWS V14.00,2013-03-24 14:05:00,
2013-03-24 10:09:00,31.1,26.3,29.91,ESE,103,2.0,4.0,82,0.00,,---,0.00,VWS V14.00,2013-03-24 14:09:00,
2013-03-24 10:11:00,31.1,26.3,29.91,ESE,103,1.0,4.0,82,0.00,,---,0.00,VWS V14.00,2013-03-24 14:11:00,
2013-03-24 10:12:00,31.2,26.4,29.91,ESE,105,1.0,4.0,82,0.00,,---,0.00,VWS V14.00,2013-03-24 14:12:00,
2013-03-24 10:17:00,31.2,26.4,29.90,East,83,3.0,6.0,82,0.00,,---,0.00,VWS V14.00,2013-03-24 14:17:00,
2013-03-24 10:22:00,31.4,26.5,29.89,ENE,76,4.0,6.0,82,0.00,,---,0.00,VWS V14.00,2013-03-24 14:22:00,
2013-03-24 10:23:00,31.4,26.5,29.89,ENE,65,1.0,6.0,82,0.00,,---,0.00,VWS V14.00,2013-03-24 14:23:00,
2013-03-24 10:28:00,31.4,26.2,29.89,East,83,4.0,7.0,81,0.00,,---,0.00,VWS V14.00,2013-03-24 14:28:00,
2013-03-24 10:29:00,31.4,26.2,29.89,East,81,3.0,5.0,81,0.00,,---,0.00,VWS V14.00,2013-03-24 14:29:00,
2013-03-24 10:30:00,31.5,26.4,29.89,ENE,76,4.0,5.0,81,0.00,,---,0.00,VWS V14.00,2013-03-24 14:30:00,
2013-03-24 10:33:00,31.5,26.4,29.88,East,87,6.0,7.0,81,0.00,,---,0.00,VWS V14.00,2013-03-24 14:33:00,
2013-03-24 10:34:00,31.5,26.4,29.88,ENE,77,6.0,7.0,81,0.00,,---,0.00,VWS V14.00,2013-03-24 14:34:00,
2013-03-24 10:35:00,31.5,26.4,29.88,East,94,4.0,7.0,81,0.00,,---,0.00,VWS V14.00,2013-03-24 14:35:00,
2013-03-24 10:38:00,31.5,26.4,29.88,East,91,1.0,7.0,81,0.00,,---,0.00,VWS V14.00,2013-03-24 14:38:00,
2013-03-24 10:39:00,31.6,26.5,29.88,ENE,74,5.0,7.0,81,0.00,,---,0.00,VWS V14.00,2013-03-24 14:39:00,
2013-03-24 10:40:00,31.6,26.5,29.88,ENE,78,4.0,7.0,81,0.00,,---,0.00,VWS V14.00,2013-03-24 14:40:00,
2013-03-24 10:43:00,31.7,26.5,29.88,ENE,78,4.0,7.0,81,0.00,,---,0.00,VWS V14.00,2013-03-24 14:43:00,
2013-03-24 10:44:00,31.7,26.5,29.88,East,87,4.0,7.0,81,0.00,,---,0.00,VWS V14.00,2013-03-24 14:44:00,
2013-03-24 10:45:00,31.7,26.5,29.88,East,91,6.0,7.0,81,0.00,,---,0.00,VWS V14.00,2013-03-24 14:45:00,
2013-03-24 10:49:00,31.8,26.6,29.87,East,87,3.0,7.0,81,0.00,,---,0.00,VWS V14.00,2013-03-24 14:49:00,
2013-03-24 10:50:00,31.8,26.6,29.87,East,83,1.0,7.0,81,0.00,,---,0.00,VWS V14.00,2013-03-24 14:50:00,
2013-03-24 10:51:00,31.9,26.7,29.87,East,84,4.0,7.0,81,0.00,,---,0.00,VWS V14.00,2013-03-24 14:51:00,
2013-03-24 10:53:00,31.9,26.7,29.87,East,83,3.0,7.0,81,0.00,,---,0.00,VWS V14.00,2013-03-24 14:53:00,
2013-03-24 10:55:00,31.9,26.7,29.87,East,88,3.0,7.0,81,0.00,,---,0.00,VWS V14.00,2013-03-24 14:55:00,
2013-03-24 10:57:00,32.0,26.8,29.87,East,82,2.0,7.0,81,0.00,,---,0.00,VWS V14.00,2013-03-24 14:57:00,
2013-03-24 10:59:00,32.0,26.5,29.87,ESE,104,3.0,6.0,80,0.00,,---,0.00,VWS V14.00,2013-03-24 14:59:00,
2013-03-24 11:01:00,32.0,26.5,29.87,East,85,6.0,6.0,80,0.00,,---,0.00,VWS V14.00,2013-03-24 15:01:00,
2013-03-24 11:02:00,32.0,26.5,29.87,ESE,103,3.0,9.0,80,0.00,,---,0.00,VWS V14.00,2013-03-24 15:02:00,
2013-03-24 11:03:00,32.0,26.5,29.87,ESE,103,2.0,9.0,80,0.00,,---,0.00,VWS V14.00,2013-03-24 15:03:00,
2013-03-24 11:04:00,32.1,26.6,29.86,East,93,2.0,9.0,80,0.00,,---,0.00,VWS V14.00,2013-03-24 15:04:00,
2013-03-24 11:07:00,32.1,26.6,29.86,East,92,3.0,13.0,80,0.00,,---,0.00,VWS V14.00,2013-03-24 15:07:00,
2013-03-24 11:08:00,32.1,26.6,29.87,East,91,5.0,13.0,80,0.00,,---,0.00,VWS V14.00,2013-03-24 15:08:00,
2013-03-24 11:09:00,32.2,26.7,29.86,East,90,6.0,13.0,80,0.00,,---,0.00,VWS V14.00,2013-03-24 15:09:00,
2013-03-24 11:10:00,32.2,26.7,29.87,East,92,4.0,13.0,80,0.00,,---,0.00,VWS V14.00,2013-03-24 15:10:00,
2013-03-24 11:13:00,32.2,26.7,29.86,East,87,5.0,13.0,80,0.00,,---,0.00,VWS V14.00,2013-03-24 15:13:00,
2013-03-24 11:16:00,32.4,26.6,29.87,East,86,2.0,13.0,79,0.00,,---,0.00,VWS V14.00,2013-03-24 15:16:00,
2013-03-24 11:18:00,32.4,26.6,29.87,East,88,2.0,13.0,79,0.00,,---,0.00,VWS V14.00,2013-03-24 15:18:00,
2013-03-24 11:20:00,32.5,26.7,29.87,East,79,2.0,13.0,79,0.00,,---,0.00,VWS V14.00,2013-03-24 15:20:00,
2013-03-24 11:22:00,32.6,26.8,29.87,East,97,3.0,13.0,79,0.00,,---,0.00,VWS V14.00,2013-03-24 15:22:00,
2013-03-24 11:24:00,32.7,26.9,29.86,East,80,2.0,13.0,79,0.00,,---,0.00,VWS V14.00,2013-03-24 15:24:00,
2013-03-24 11:25:00,32.8,27.0,29.87,ENE,72,7.0,13.0,79,0.00,,---,0.00,VWS V14.00,2013-03-24 15:25:00,
2013-03-24 11:29:00,32.8,26.7,29.86,ESE,106,5.0,7.0,78,0.00,,---,0.00,VWS V14.00,2013-03-24 15:29:00,
2013-03-24 11:30:00,32.8,26.7,29.86,East,92,6.0,7.0,78,0.00,,---,0.00,VWS V14.00,2013-03-24 15:30:00,
2013-03-24 11:31:00,32.8,26.7,29.86,ESE,117,3.0,7.0,78,0.00,,---,0.00,VWS V14.00,2013-03-24 15:31:00,
2013-03-24 11:35:00,33.0,26.9,29.86,East,90,2.0,10.0,78,0.00,,---,0.00,VWS V14.00,2013-03-24 15:35:00,
2013-03-24 11:36:00,33.0,26.9,29.86,ESE,123,2.0,10.0,78,0.00,,---,0.00,VWS V14.00,2013-03-24 15:36:00,
2013-03-24 11:38:00,33.2,27.1,29.86,East,91,4.0,10.0,78,0.00,,---,0.00,VWS V14.00,2013-03-24 15:38:00,
2013-03-24 11:39:00,33.2,26.8,29.86,East,96,2.0,10.0,77,0.00,,---,0.00,VWS V14.00,2013-03-24 15:39:00,
2013-03-24 11:40:00,33.2,26.8,29.85,ENE,77,9.0,10.0,77,0.00,,---,0.00,VWS V14.00,2013-03-24 15:40:00,
2013-03-24 11:44:00,33.2,26.8,29.85,East,85,7.0,10.0,77,0.00,,---,0.00,VWS V14.00,2013-03-24 15:44:00,
2013-03-24 11:45:00,33.3,26.9,29.85,East,95,4.0,10.0,77,0.00,,---,0.00,VWS V14.00,2013-03-24 15:45:00,
2013-03-24 11:46:00,33.3,26.9,29.85,ESE,103,2.0,10.0,77,0.00,,---,0.00,VWS V14.00,2013-03-24 15:46:00,
2013-03-24 11:49:00,33.4,26.7,29.85,SE,129,8.0,11.0,76,0.00,,---,0.00,VWS V14.00,2013-03-24 15:49:00,
2013-03-24 11:51:00,33.5,26.8,29.84,ESE,113,4.0,12.0,76,0.00,,---,0.00,VWS V14.00,2013-03-24 15:51:00,
2013-03-24 11:54:00,33.7,27.0,29.84,East,83,5.0,12.0,76,0.00,,---,0.00,VWS V14.00,2013-03-24 15:54:00,
2013-03-24 11:55:00,33.7,27.0,29.84,East,86,3.0,12.0,76,0.00,,---,0.00,VWS V14.00,2013-03-24 15:55:00,
2013-03-24 11:57:00,33.8,27.0,29.84,East,84,5.0,12.0,76,0.00,,---,0.00,VWS V14.00,2013-03-24 15:57:00,
2013-03-24 11:59:00,33.8,28.3,29.84,ESE,120,9.0,11.0,80,0.00,,---,0.00,VWS V14.00,2013-03-24 15:59:00,
2013-03-24 12:01:00,33.9,26.8,29.84,East,84,3.0,11.0,75,0.00,,---,0.00,VWS V14.00,2013-03-24 16:01:00,
2013-03-24 12:02:00,33.9,26.8,29.84,East,86,5.0,11.0,75,0.00,,---,0.00,VWS V14.00,2013-03-24 16:02:00,
2013-03-24 12:03:00,34.0,26.9,29.84,East,82,4.0,11.0,75,0.00,,---,0.00,VWS V14.00,2013-03-24 16:03:00,
2013-03-24 12:06:00,33.9,26.5,29.83,ENE,78,5.0,16.0,74,0.00,,---,0.00,VWS V14.00,2013-03-24 16:06:00,
2013-03-24 12:08:00,34.0,26.6,29.83,ESE,111,4.0,16.0,74,0.00,,---,0.00,VWS V14.00,2013-03-24 16:08:00,
2013-03-24 12:09:00,34.0,26.6,29.83,East,90,5.0,16.0,74,0.00,,---,0.00,VWS V14.00,2013-03-24 16:09:00,
2013-03-24 12:12:00,34.1,26.7,29.82,ESE,115,5.0,16.0,74,0.00,,---,0.00,VWS V14.00,2013-03-24 16:12:00,
2013-03-24 12:13:00,34.2,26.8,29.82,ESE,119,4.0,16.0,74,0.00,,---,0.00,VWS V14.00,2013-03-24 16:13:00,
2013-03-24 12:14:00,34.2,26.8,29.82,ESE,121,9.0,16.0,74,0.00,,---,0.00,VWS V14.00,2013-03-24 16:14:00,
2013-03-24 12:17:00,34.4,27.0,29.82,East,88,5.0,16.0,74,0.00,,---,0.00,VWS V14.00,2013-03-24 16:17:00,
2013-03-24 12:19:00,34.4,26.7,29.82,ESE,121,5.0,16.0,73,0.00,,---,0.00,VWS V14.00,2013-03-24 16:19:00,
2013-03-24 12:20:00,34.4,26.7,29.82,East,96,6.0,16.0,73,0.00,,---,0.00,VWS V14.00,2013-03-24 16:20:00,
2013-03-24 12:24:00,35.0,26.9,29.82,East,88,2.0,19.0,72,0.00,,---,0.00,VWS V14.00,2013-03-24 16:24:00,
2013-03-24 12:25:00,35.0,26.9,29.82,ESE,114,11.0,19.0,72,0.00,,---,0.00,VWS V14.00,2013-03-24 16:25:00,
2013-03-24 12:28:00,35.3,26.9,29.81,East,93,11.0,19.0,71,0.00,,---,0.00,VWS V14.00,2013-03-24 16:28:00,
2013-03-24 12:29:00,35.5,27.0,29.81,East,87,9.0,12.0,71,0.00,,---,0.00,VWS V14.00,2013-03-24 16:29:00,
2013-03-24 12:33:00,35.5,27.0,29.80,East,84,7.0,15.0,71,0.00,,---,0.00,VWS V14.00,2013-03-24 16:33:00,
2013-03-24 12:34:00,35.5,26.7,29.80,ENE,78,12.0,15.0,70,0.00,,---,0.00,VWS V14.00,2013-03-24 16:34:00,
2013-03-24 12:35:00,35.6,26.8,29.80,East,91,12.0,15.0,70,0.00,,---,0.00,VWS V14.00,2013-03-24 16:35:00,
2013-03-24 12:40:00,35.6,26.8,29.80,SE,128,12.0,16.0,70,0.00,,---,0.00,VWS V14.00,2013-03-24 16:40:00,
2013-03-24 12:41:00,35.7,26.9,29.80,East,87,8.0,16.0,70,0.00,,---,0.00,VWS V14.00,2013-03-24 16:41:00,
2013-03-24 12:42:00,35.7,26.9,29.80,East,92,11.0,16.0,70,0.00,,---,0.00,VWS V14.00,2013-03-24 16:42:00,
2013-03-24 12:43:00,35.7,26.9,29.80,East,96,9.0,16.0,70,0.00,,---,0.00,VWS V14.00,2013-03-24 16:43:00,
2013-03-24 12:45:00,35.5,26.7,29.80,ENE,76,6.0,16.0,70,0.00,,---,0.00,VWS V14.00,2013-03-24 16:45:00,
2013-03-24 12:48:00,35.6,26.8,29.80,ESE,103,10.0,16.0,70,0.00,,---,0.00,VWS V14.00,2013-03-24 16:48:00,
2013-03-24 12:49:00,35.7,26.9,29.80,East,99,4.0,16.0,70,0.00,,---,0.00,VWS V14.00,2013-03-24 16:49:00,
2013-03-24 12:50:00,35.8,27.0,29.80,ESE,111,9.0,16.0,70,0.00,,---,0.00,VWS V14.00,2013-03-24 16:50:00,
2013-03-24 12:52:00,35.8,27.0,29.80,ENE,65,5.0,16.0,70,0.00,,---,0.00,VWS V14.00,2013-03-24 16:52:00,
2013-03-24 12:55:00,35.6,26.8,29.80,East,95,4.0,16.0,70,0.00,,---,0.00,VWS V14.00,2013-03-24 16:55:00,
2013-03-24 12:57:00,35.7,26.9,29.80,East,86,7.0,16.0,70,0.00,,---,0.00,VWS V14.00,2013-03-24 16:57:00,
2013-03-24 12:58:00,35.7,26.9,29.80,East,83,7.0,16.0,70,0.00,,---,0.00,VWS V14.00,2013-03-24 16:58:00,
2013-03-24 13:00:00,35.7,26.9,29.81,East,80,8.0,12.0,70,0.00,,---,0.00,VWS V14.00,2013-03-24 17:00:00,
2013-03-24 13:02:00,35.7,26.5,29.81,ENE,71,5.0,13.0,69,0.00,,---,0.00,VWS V14.00,2013-03-24 17:02:00,
2013-03-24 13:03:00,35.6,26.8,29.81,East,88,6.0,13.0,70,0.00,,---,0.00,VWS V14.00,2013-03-24 17:03:00,
2013-03-24 13:04:00,35.6,26.8,29.81,East,95,5.0,13.0,70,0.00,,---,0.00,VWS V14.00,2013-03-24 17:04:00,
2013-03-24 13:07:00,35.7,26.9,29.80,ESE,106,6.0,16.0,70,0.00,,---,0.00,VWS V14.00,2013-03-24 17:07:00,
2013-03-24 13:08:00,35.7,26.5,29.80,East,82,7.0,16.0,69,0.00,,---,0.00,VWS V14.00,2013-03-24 17:08:00,
2013-03-24 13:09:00,35.8,27.0,29.80,East,101,6.0,16.0,70,0.00,,---,0.00,VWS V14.00,2013-03-24 17:09:00,
2013-03-24 13:11:00,35.9,26.7,29.81,East,86,3.0,16.0,69,0.00,,---,0.00,VWS V14.00,2013-03-24 17:11:00,
2013-03-24 13:16:00,36.4,26.9,29.80,East,83,4.0,16.0,68,0.00,,---,0.00,VWS V14.00,2013-03-24 17:16:00,
2013-03-24 13:17:00,36.4,26.9,29.80,East,92,6.0,16.0,68,0.00,,---,0.00,VWS V14.00,2013-03-24 17:17:00,
2013-03-24 13:18:00,36.3,26.8,29.80,East,91,6.0,16.0,68,0.00,,---,0.00,VWS V14.00,2013-03-24 17:18:00,
2013-03-24 13:19:00,36.3,26.8,29.80,East,84,12.0,16.0,68,0.00,,---,0.00,VWS V14.00,2013-03-24 17:19:00,
2013-03-24 13:22:00,36.2,26.7,29.80,East,95,4.0,16.0,68,0.00,,---,0.00,VWS V14.00,2013-03-24 17:22:00,
2013-03-24 13:23:00,36.3,26.8,29.80,ESE,117,3.0,16.0,68,0.00,,---,0.00,VWS V14.00,2013-03-24 17:23:00,
2013-03-24 13:24:00,36.5,27.0,29.80,ESE,121,5.0,16.0,68,0.00,,---,0.00,VWS V14.00,2013-03-24 17:24:00,
2013-03-24 13:26:00,36.8,27.2,29.80,ESE,110,10.0,16.0,68,0.00,,---,0.00,VWS V14.00,2013-03-24 17:26:00,
2013-03-24 13:27:00,36.8,26.9,29.80,East,96,7.0,16.0,67,0.00,,---,0.00,VWS V14.00,2013-03-24 17:27:00,
2013-03-24 13:29:00,36.9,27.0,29.80,East,86,10.0,18.0,67,0.00,,---,0.00,VWS V14.00,2013-03-24 17:29:00,
2013-03-24 13:31:00,36.9,27.0,29.80,ESE,103,9.0,18.0,67,0.00,,---,0.00,VWS V14.00,2013-03-24 17:31:00,
2013-03-24 13:33:00,36.8,26.5,29.80,ESE,123,9.0,18.0,66,0.00,,---,0.00,VWS V14.00,2013-03-24 17:33:00,
2013-03-24 13:34:00,36.8,26.5,29.80,East,101,6.0,18.0,66,0.00,,---,0.00,VWS V14.00,2013-03-24 17:34:00,
2013-03-24 13:35:00,36.8,26.9,29.80,East,92,3.0,18.0,67,0.00,,---,0.00,VWS V14.00,2013-03-24 17:35:00,
2013-03-24 13:37:00,36.9,27.0,29.80,ESE,108,9.0,18.0,67,0.00,,---,0.00,VWS V14.00,2013-03-24 17:37:00,
2013-03-24 13:38:00,37.0,27.1,29.80,East,101,15.0,18.0,67,0.00,,---,0.00,VWS V14.00,2013-03-24 17:38:00,
2013-03-24 13:40:00,37.3,27.0,29.80,ESE,103,8.0,18.0,66,0.00,,---,0.00,VWS V14.00,2013-03-24 17:40:00,
2013-03-24 13:42:00,37.3,27.0,29.80,ESE,113,6.0,18.0,66,0.00,,---,0.00,VWS V14.00,2013-03-24 17:42:00,
2013-03-24 13:43:00,37.1,26.8,29.80,ESE,107,8.0,18.0,66,0.00,,---,0.00,VWS V14.00,2013-03-24 17:43:00,
2013-03-24 13:45:00,37.0,26.7,29.80,East,84,7.0,18.0,66,0.00,,---,0.00,VWS V14.00,2013-03-24 17:45:00,
2013-03-24 13:46:00,37.0,26.7,29.80,ENE,61,6.0,18.0,66,0.00,,---,0.00,VWS V14.00,2013-03-24 17:46:00,
2013-03-24 13:47:00,37.0,26.7,29.80,East,97,9.0,18.0,66,0.00,,---,0.00,VWS V14.00,2013-03-24 17:47:00,
2013-03-24 13:48:00,36.9,27.0,29.79,East,83,7.0,18.0,67,0.00,,---,0.00,VWS V14.00,2013-03-24 17:48:00,
2013-03-24 13:52:00,37.1,26.8,29.79,East,88,6.0,18.0,66,0.00,,---,0.00,VWS V14.00,2013-03-24 17:52:00,
2013-03-24 13:53:00,37.1,26.8,29.78,East,97,9.0,18.0,66,0.00,,---,0.00,VWS V14.00,2013-03-24 17:53:00,
2013-03-24 13:58:00,37.1,26.8,29.78,East,98,5.0,18.0,66,0.00,,---,0.00,VWS V14.00,2013-03-24 17:58:00,
2013-03-24 13:59:00,37.1,26.8,29.78,ENE,72,11.0,12.0,66,0.00,,---,0.00,VWS V14.00,2013-03-24 17:59:00,
2013-03-24 14:00:00,37.1,26.8,29.78,East,85,7.0,16.0,66,0.00,,---,0.00,VWS V14.00,2013-03-24 18:00:00,
2013-03-24 14:04:00,37.2,26.9,29.78,East,99,9.0,16.0,66,0.00,,---,0.00,VWS V14.00,2013-03-24 18:04:00,
2013-03-24 14:05:00,37.3,27.0,29.77,East,87,6.0,16.0,66,0.00,,---,0.00,VWS V14.00,2013-03-24 18:05:00,
2013-03-24 14:06:00,37.4,27.1,29.77,East,98,3.0,16.0,66,0.00,,---,0.00,VWS V14.00,2013-03-24 18:06:00,
2013-03-24 14:07:00,37.5,27.2,29.77,East,88,3.0,16.0,66,0.00,,---,0.00,VWS V14.00,2013-03-24 18:07:00,
2013-03-24 14:12:00,38.2,27.9,29.77,East,86,4.0,16.0,66,0.00,,---,0.00,VWS V14.00,2013-03-24 18:12:00,
2013-03-24 14:14:00,38.3,27.2,29.76,ENE,60,11.0,18.0,64,0.00,,---,0.00,VWS V14.00,2013-03-24 18:14:00,
2013-03-24 14:15:00,38.3,27.2,29.76,East,96,10.0,18.0,64,0.00,,---,0.00,VWS V14.00,2013-03-24 18:15:00,
2013-03-24 14:17:00,38.2,27.5,29.76,East,84,7.0,18.0,65,0.00,,---,0.00,VWS V14.00,2013-03-24 18:17:00,
2013-03-24 14:20:00,38.4,27.3,29.76,East,82,6.0,19.0,64,0.00,,---,0.00,VWS V14.00,2013-03-24 18:20:00,
2013-03-24 14:21:00,38.3,27.2,29.76,ESE,105,6.0,19.0,64,0.00,,---,0.00,VWS V14.00,2013-03-24 18:21:00,
2013-03-24 14:23:00,38.2,27.1,29.76,East,98,14.0,19.0,64,0.00,,---,0.00,VWS V14.00,2013-03-24 18:23:00,
2013-03-24 14:28:00,38.3,27.6,29.76,East,89,3.0,19.0,65,0.00,,---,0.00,VWS V14.00,2013-03-24 18:28:00,
2013-03-24 14:29:00,38.4,27.7,29.76,East,83,4.0,4.0,65,0.00,,---,0.00,VWS V14.00,2013-03-24 18:29:00,
2013-03-24 14:34:00,38.3,26.8,29.76,SE,130,11.0,19.0,63,0.00,,---,0.00,VWS V14.00,2013-03-24 18:34:00,
2013-03-24 14:35:00,38.0,26.9,29.76,East,83,15.0,19.0,64,0.00,,---,0.00,VWS V14.00,2013-03-24 18:35:00,
2013-03-24 14:39:00,37.9,27.2,29.76,East,86,10.0,19.0,65,0.00,,---,0.00,VWS V14.00,2013-03-24 18:39:00,
2013-03-24 14:42:00,38.0,27.3,29.76,ENE,66,6.0,19.0,65,0.00,,---,0.00,VWS V14.00,2013-03-24 18:42:00,
2013-03-24 14:43:00,38.0,27.3,29.76,East,86,10.0,19.0,65,0.00,,---,0.00,VWS V14.00,2013-03-24 18:43:00,
2013-03-24 14:45:00,37.9,26.8,29.76,East,92,5.0,19.0,64,0.00,,---,0.00,VWS V14.00,2013-03-24 18:45:00,
2013-03-24 14:47:00,37.9,26.8,29.75,ENE,67,14.0,19.0,64,0.00,,---,0.00,VWS V14.00,2013-03-24 18:47:00,
2013-03-24 14:49:00,37.9,27.2,29.75,East,99,15.0,19.0,65,0.00,,---,0.00,VWS V14.00,2013-03-24 18:49:00,
2013-03-24 14:50:00,37.9,26.8,29.75,East,100,9.0,19.0,64,0.00,,---,0.00,VWS V14.00,2013-03-24 18:50:00,
2013-03-24 14:53:00,37.7,26.6,29.75,East,82,7.0,19.0,64,0.00,,---,0.00,VWS V14.00,2013-03-24 18:53:00,
2013-03-24 14:54:00,37.8,26.7,29.75,East,87,12.0,19.0,64,0.00,,---,0.00,VWS V14.00,2013-03-24 18:54:00,
2013-03-24 14:56:00,37.7,26.6,29.75,East,90,5.0,19.0,64,0.00,,---,0.00,VWS V14.00,2013-03-24 18:56:00,
2013-03-24 14:58:00,37.5,26.5,29.75,East,88,6.0,19.0,64,0.00,,---,0.00,VWS V14.00,2013-03-24 18:58:00,
2013-03-24 15:00:00,37.5,26.8,29.74,East,82,5.0,14.0,65,0.00,,---,0.00,VWS V14.00,2013-03-24 19:00:00,
2013-03-24 15:02:00,37.7,27.0,29.74,ENE,70,6.0,14.0,65,0.00,,---,0.00,VWS V14.00,2013-03-24 19:02:00,
2013-03-24 15:04:00,37.7,27.0,29.74,ENE,70,11.0,14.0,65,0.00,,---,0.00,VWS V14.00,2013-03-24 19:04:00,
2013-03-24 15:05:00,37.7,27.0,29.74,ENE,75,6.0,16.0,65,0.00,,---,0.00,VWS V14.00,2013-03-24 19:05:00,
2013-03-24 15:08:00,37.6,26.5,29.74,East,90,6.0,16.0,64,0.00,,---,0.00,VWS V14.00,2013-03-24 19:08:00,
2013-03-24 15:09:00,37.5,26.5,29.74,SE,132,10.0,16.0,64,0.00,,---,0.00,VWS V14.00,2013-03-24 19:09:00,
2013-03-24 15:10:00,37.5,26.8,29.73,ESE,102,10.0,16.0,65,0.00,,---,0.00,VWS V14.00,2013-03-24 19:10:00,
2013-03-24 15:12:00,37.6,26.9,29.73,East,82,13.0,16.0,65,0.00,,---,0.00,VWS V14.00,2013-03-24 19:12:00,
2013-03-24 15:14:00,37.7,27.0,29.73,East,84,5.0,16.0,65,0.00,,---,0.00,VWS V14.00,2013-03-24 19:14:00,
2013-03-24 15:17:00,38.1,27.0,29.73,ESE,103,6.0,16.0,64,0.00,,---,0.00,VWS V14.00,2013-03-24 19:17:00,
2013-03-24 15:18:00,38.2,27.1,29.73,ESE,123,7.0,16.0,64,0.00,,---,0.00,VWS V14.00,2013-03-24 19:18:00,
2013-03-24 15:19:00,38.3,27.2,29.73,ENE,72,6.0,16.0,64,0.00,,---,0.00,VWS V14.00,2013-03-24 19:19:00,
2013-03-24 15:23:00,38.2,27.1,29.72,ENE,69,6.0,16.0,64,0.00,,---,0.00,VWS V14.00,2013-03-24 19:23:00,
2013-03-24 15:24:00,38.3,27.6,29.72,East,87,6.0,16.0,65,0.00,,---,0.00,VWS V14.00,2013-03-24 19:24:00,
2013-03-24 15:26:00,38.4,27.7,29.72,ENE,75,13.0,16.0,65,0.00,,---,0.00,VWS V14.00,2013-03-24 19:26:00,
2013-03-24 15:27:00,38.3,27.2,29.72,East,79,3.0,16.0,64,0.00,,---,0.00,VWS V14.00,2013-03-24 19:27:00,
2013-03-24 15:30:00,38.4,27.3,29.72,East,81,6.0,13.0,64,0.00,,---,0.00,VWS V14.00,2013-03-24 19:30:00,
2013-03-24 15:32:00,38.2,26.7,29.72,ENE,71,12.0,16.0,63,0.00,,---,0.00,VWS V14.00,2013-03-24 19:32:00,
2013-03-24 15:33:00,38.2,26.7,29.72,East,80,6.0,16.0,63,0.00,,---,0.00,VWS V14.00,2013-03-24 19:33:00,
2013-03-24 15:35:00,38.2,27.5,29.72,ENE,68,7.0,17.0,65,0.00,,---,0.00,VWS V14.00,2013-03-24 19:35:00,
2013-03-24 15:38:00,38.3,27.6,29.72,East,84,11.0,21.0,65,0.00,,---,0.00,VWS V14.00,2013-03-24 19:38:00,
2013-03-24 15:39:00,38.3,27.6,29.72,ENE,75,9.0,21.0,65,0.00,,---,0.00,VWS V14.00,2013-03-24 19:39:00,
2013-03-24 15:40:00,38.4,27.7,29.71,ENE,65,10.0,21.0,65,0.00,,---,0.00,VWS V14.00,2013-03-24 19:40:00,
2013-03-24 15:41:00,38.4,27.7,29.71,ENE,62,10.0,21.0,65,0.00,,---,0.00,VWS V14.00,2013-03-24 19:41:00,
2013-03-24 15:45:00,38.5,28.1,29.72,East,84,9.0,21.0,66,0.00,,---,0.00,VWS V14.00,2013-03-24 19:45:00,
2013-03-24 15:46:00,38.4,28.0,29.72,East,83,8.0,21.0,66,0.00,,---,0.00,VWS V14.00,2013-03-24 19:46:00,
2013-03-24 15:50:00,38.4,28.0,29.71,East,80,14.0,21.0,66,0.00,,---,0.00,VWS V14.00,2013-03-24 19:50:00,
2013-03-24 15:51:00,38.3,27.6,29.71,East,86,11.0,21.0,65,0.00,,---,0.00,VWS V14.00,2013-03-24 19:51:00,
2013-03-24 15:52:00,38.3,27.6,29.71,East,80,11.0,21.0,65,0.00,,---,0.00,VWS V14.00,2013-03-24 19:52:00,
2013-03-24 15:53:00,38.1,27.4,29.71,East,86,9.0,21.0,65,0.00,,---,0.00,VWS V14.00,2013-03-24 19:53:00,
2013-03-24 15:55:00,38.0,27.3,29.71,East,82,9.0,21.0,65,0.00,,---,0.00,VWS V14.00,2013-03-24 19:55:00,
2013-03-24 15:56:00,38.1,27.8,29.71,East,82,6.0,21.0,66,0.00,,---,0.00,VWS V14.00,2013-03-24 19:56:00,
2013-03-24 15:57:00,38.2,27.9,29.70,NE,50,6.0,21.0,66,0.00,,---,0.00,VWS V14.00,2013-03-24 19:57:00,
2013-03-24 15:58:00,38.3,28.0,29.70,ENE,74,6.0,6.0,66,0.00,,---,0.00,VWS V14.00,2013-03-24 19:58:00,
2013-03-24 16:00:00,38.4,28.0,29.70,East,88,14.0,18.0,66,0.00,,---,0.00,VWS V14.00,2013-03-24 20:00:00,
2013-03-24 16:02:00,38.3,27.6,29.70,East,82,9.0,18.0,65,0.00,,---,0.00,VWS V14.00,2013-03-24 20:02:00,
2013-03-24 16:03:00,38.3,28.0,29.70,ENE,69,10.0,18.0,66,0.00,,---,0.00,VWS V14.00,2013-03-24 20:03:00,
2013-03-24 16:04:00,38.3,28.0,29.70,ENE,76,10.0,18.0,66,0.00,,---,0.00,VWS V14.00,2013-03-24 20:04:00,
2013-03-24 16:08:00,38.5,28.1,29.70,East,87,4.0,18.0,66,0.00,,---,0.00,VWS V14.00,2013-03-24 20:08:00,
2013-03-24 16:09:00,38.6,28.2,29.69,East,83,10.0,18.0,66,0.00,,---,0.00,VWS V14.00,2013-03-24 20:09:00,
2013-03-24 16:10:00,38.6,28.2,29.70,ENE,57,18.0,18.0,66,0.00,,---,0.00,VWS V14.00,2013-03-24 20:10:00,
2013-03-24 16:13:00,38.4,27.7,29.69,East,86,4.0,18.0,65,0.00,,---,0.00,VWS V14.00,2013-03-24 20:13:00,
2013-03-24 16:14:00,38.4,27.7,29.69,East,82,5.0,18.0,65,0.00,,---,0.00,VWS V14.00,2013-03-24 20:14:00,
2013-03-24 16:15:00,38.4,28.0,29.69,ENE,75,11.0,18.0,66,0.00,,---,0.00,VWS V14.00,2013-03-24 20:15:00,
2013-03-24 16:19:00,38.2,27.5,29.69,ENE,74,11.0,18.0,65,0.00,,---,0.00,VWS V14.00,2013-03-24 20:19:00,
2013-03-24 16:21:00,38.2,27.9,29.69,East,79,17.0,18.0,66,0.00,,---,0.00,VWS V14.00,2013-03-24 20:21:00,
2013-03-24 16:23:00,38.0,27.7,29.68,East,80,6.0,20.0,66,0.00,,---,0.00,VWS V14.00,2013-03-24 20:23:00,
2013-03-24 16:26:00,38.1,27.8,29.68,East,90,6.0,20.0,66,0.00,,---,0.00,VWS V14.00,2013-03-24 20:26:00,
2013-03-24 16:28:00,38.0,27.3,29.68,NE,53,25.0,25.0,65,0.00,,---,0.00,VWS V14.00,2013-03-24 20:28:00,
2013-03-24 16:29:00,37.8,27.1,29.68,ENE,72,5.0,19.0,65,0.00,,---,0.00,VWS V14.00,2013-03-24 20:29:00,
2013-03-24 16:31:00,37.7,27.0,29.68,East,80,12.0,19.0,65,0.00,,---,0.00,VWS V14.00,2013-03-24 20:31:00,
2013-03-24 16:32:00,37.7,27.4,29.68,NE,44,14.0,19.0,66,0.00,,---,0.00,VWS V14.00,2013-03-24 20:32:00,
2013-03-24 16:35:00,37.7,27.8,29.68,ENE,67,9.0,19.0,67,0.00,,---,0.00,VWS V14.00,2013-03-24 20:35:00,
2013-03-24 16:36:00,37.7,27.8,29.68,SE,139,13.0,19.0,67,0.00,,---,0.00,VWS V14.00,2013-03-24 20:36:00,
2013-03-24 16:37:00,37.6,27.3,29.68,East,87,8.0,19.0,66,0.00,,---,0.00,VWS V14.00,2013-03-24 20:37:00,
2013-03-24 16:39:00,37.6,27.3,29.67,East,92,3.0,19.0,66,0.00,,---,0.00,VWS V14.00,2013-03-24 20:39:00,
2013-03-24 16:42:00,37.6,27.3,29.67,East,86,1.0,19.0,66,0.00,,---,0.00,VWS V14.00,2013-03-24 20:42:00,
2013-03-24 16:43:00,37.6,27.6,29.67,ENE,72,8.0,19.0,67,0.00,,---,0.00,VWS V14.00,2013-03-24 20:43:00,
2013-03-24 16:44:00,37.7,27.8,29.67,ENE,78,4.0,19.0,67,0.00,,---,0.00,VWS V14.00,2013-03-24 20:44:00,
2013-03-24 16:47:00,37.8,27.5,29.66,East,80,10.0,19.0,66,0.00,,---,0.00,VWS V14.00,2013-03-24 20:47:00,
2013-03-24 16:49:00,37.7,27.4,29.66,East,81,8.0,19.0,66,0.00,,---,0.00,VWS V14.00,2013-03-24 20:49:00,
2013-03-24 16:51:00,37.7,27.4,29.66,ENE,65,7.0,20.0,66,0.00,,---,0.00,VWS V14.00,2013-03-24 20:51:00,
2013-03-24 16:53:00,37.6,27.3,29.66,ENE,75,15.0,20.0,66,0.00,,---,0.00,VWS V14.00,2013-03-24 20:53:00,
2013-03-24 16:54:00,37.5,27.2,29.66,ENE,75,4.0,20.0,66,0.00,,---,0.00,VWS V14.00,2013-03-24 20:54:00,
2013-03-24 16:56:00,37.4,27.5,29.66,ESE,114,11.0,20.0,67,0.00,,---,0.00,VWS V14.00,2013-03-24 20:56:00,
2013-03-24 16:58:00,37.4,27.5,29.66,ENE,65,12.0,20.0,67,0.00,,---,0.00,VWS V14.00,2013-03-24 20:58:00,
2013-03-24 17:00:00,37.4,27.5,29.66,ENE,59,11.0,16.0,67,0.00,,---,0.00,VWS V14.00,2013-03-24 21:00:00,
2013-03-24 17:03:00,37.3,27.0,29.66,East,90,7.0,23.0,66,0.00,,---,0.00,VWS V14.00,2013-03-24 21:03:00,
2013-03-24 17:04:00,37.4,27.5,29.66,East,81,8.0,23.0,67,0.00,,---,0.00,VWS V14.00,2013-03-24 21:04:00,
2013-03-24 17:05:00,37.4,27.1,29.66,East,79,10.0,23.0,66,0.00,,---,0.00,VWS V14.00,2013-03-24 21:05:00,
2013-03-24 17:07:00,37.4,27.5,29.66,ENE,65,7.0,23.0,67,0.00,,---,0.00,VWS V14.00,2013-03-24 21:07:00,
2013-03-24 17:09:00,37.4,27.5,29.66,East,88,12.0,23.0,67,0.00,,---,0.00,VWS V14.00,2013-03-24 21:09:00,
2013-03-24 17:10:00,37.3,27.4,29.66,ESE,111,10.0,23.0,67,0.00,,---,0.00,VWS V14.00,2013-03-24 21:10:00,
2013-03-24 17:11:00,37.3,27.4,29.66,NE,44,14.0,23.0,67,0.00,,---,0.00,VWS V14.00,2013-03-24 21:11:00,
2013-03-24 17:12:00,37.3,27.4,29.66,East,94,7.0,23.0,67,0.00,,---,0.00,VWS V14.00,2013-03-24 21:12:00,
2013-03-24 17:14:00,37.3,27.4,29.66,East,79,13.0,23.0,67,0.00,,---,0.00,VWS V14.00,2013-03-24 21:14:00,
2013-03-24 17:16:00,37.3,27.4,29.66,East,88,4.0,23.0,67,0.00,,---,0.00,VWS V14.00,2013-03-24 21:16:00,
2013-03-24 17:17:00,37.3,27.4,29.66,ESE,106,11.0,23.0,67,0.00,,---,0.00,VWS V14.00,2013-03-24 21:17:00,
2013-03-24 17:21:00,37.3,27.7,29.65,East,84,12.0,23.0,68,0.00,,---,0.00,VWS V14.00,2013-03-24 21:21:00,
2013-03-24 17:22:00,37.3,27.4,29.66,East,101,10.0,23.0,67,0.00,,---,0.00,VWS V14.00,2013-03-24 21:22:00,
2013-03-24 17:23:00,37.2,27.6,29.66,East,86,11.0,23.0,68,0.00,,---,0.00,VWS V14.00,2013-03-24 21:23:00,
2013-03-24 17:27:00,37.2,27.6,29.66,NE,53,13.0,23.0,68,0.00,,---,0.00,VWS V14.00,2013-03-24 21:27:00,
2013-03-24 17:28:00,37.1,27.5,29.66,East,88,11.0,23.0,68,0.00,,---,0.00,VWS V14.00,2013-03-24 21:28:00,
2013-03-24 17:29:00,37.1,27.5,29.66,East,86,11.0,14.0,68,0.00,,---,0.00,VWS V14.00,2013-03-24 21:29:00,
2013-03-24 17:33:00,37.0,27.4,29.65,East,96,8.0,14.0,68,0.00,,---,0.00,VWS V14.00,2013-03-24 21:33:00,
2013-03-24 17:34:00,37.0,27.4,29.66,East,84,14.0,15.0,68,0.00,,---,0.00,VWS V14.00,2013-03-24 21:34:00,
2013-03-24 17:37:00,36.9,27.7,29.65,East,83,18.0,20.0,69,0.00,,---,0.00,VWS V14.00,2013-03-24 21:37:00,
2013-03-24 17:38:00,36.9,27.3,29.65,ENE,72,8.0,20.0,68,0.00,,---,0.00,VWS V14.00,2013-03-24 21:38:00,
2013-03-24 17:39:00,36.9,27.7,29.65,East,83,10.0,20.0,69,0.00,,---,0.00,VWS V14.00,2013-03-24 21:39:00,
2013-03-24 17:40:00,36.9,27.3,29.65,East,82,11.0,20.0,68,0.00,,---,0.00,VWS V14.00,2013-03-24 21:40:00,
2013-03-24 17:45:00,36.7,27.5,29.65,ENE,66,14.0,21.0,69,0.00,,---,0.00,VWS V14.00,2013-03-24 21:45:00,
2013-03-24 17:46:00,36.8,27.6,29.65,East,93,9.0,22.0,69,0.00,,---,0.00,VWS V14.00,2013-03-24 21:46:00,
2013-03-24 17:47:00,36.8,27.6,29.65,East,101,10.0,22.0,69,0.00,,---,0.00,VWS V14.00,2013-03-24 21:47:00,
2013-03-24 17:50:00,36.7,27.5,29.65,East,100,9.0,22.0,69,0.00,,---,0.00,VWS V14.00,2013-03-24 21:50:00,
2013-03-24 17:52:00,36.6,27.4,29.65,East,82,7.0,22.0,69,0.00,,---,0.00,VWS V14.00,2013-03-24 21:52:00,
2013-03-24 17:53:00,36.6,27.8,29.65,East,79,11.0,22.0,70,0.00,,---,0.00,VWS V14.00,2013-03-24 21:53:00,
2013-03-24 17:55:00,36.6,27.8,29.65,East,79,4.0,22.0,70,0.00,,---,0.00,VWS V14.00,2013-03-24 21:55:00,
2013-03-24 17:58:00,36.7,27.9,29.65,ENE,65,7.0,22.0,70,0.00,,---,0.00,VWS V14.00,2013-03-24 21:58:00,
2013-03-24 17:59:00,36.6,27.8,29.64,East,90,5.0,10.0,70,0.00,,---,0.00,VWS V14.00,2013-03-24 21:59:00,
2013-03-24 18:00:00,36.6,28.1,29.64,ENE,78,9.0,14.0,71,0.00,,---,0.00,VWS V14.00,2013-03-24 22:00:00,
2013-03-24 18:04:00,36.5,28.0,29.64,ESE,116,10.0,15.0,71,0.00,,---,0.00,VWS V14.00,2013-03-24 22:04:00,
2013-03-24 18:05:00,36.6,28.1,29.64,East,88,5.0,15.0,71,0.00,,---,0.00,VWS V14.00,2013-03-24 22:05:00,
2013-03-24 18:10:00,36.5,28.0,29.64,ENE,68,4.0,15.0,71,0.00,,---,0.00,VWS V14.00,2013-03-24 22:10:00,
2013-03-24 18:11:00,36.5,28.4,29.64,East,86,9.0,15.0,72,0.00,,---,0.00,VWS V14.00,2013-03-24 22:11:00,
2013-03-24 18:15:00,36.4,28.2,29.64,ESE,107,10.0,15.0,72,0.00,,---,0.00,VWS V14.00,2013-03-24 22:15:00,
2013-03-24 18:16:00,36.4,28.2,29.63,East,81,11.0,15.0,72,0.00,,---,0.00,VWS V14.00,2013-03-24 22:16:00,
2013-03-24 18:17:00,36.4,28.2,29.64,ENE,70,5.0,20.0,72,0.00,,---,0.00,VWS V14.00,2013-03-24 22:17:00,
2013-03-24 18:20:00,36.4,28.2,29.63,East,89,7.0,20.0,72,0.00,,---,0.00,VWS V14.00,2013-03-24 22:20:00,
2013-03-24 18:22:00,36.4,28.2,29.63,East,82,7.0,20.0,72,0.00,,---,0.00,VWS V14.00,2013-03-24 22:22:00,
2013-03-24 18:23:00,36.4,28.2,29.63,ENE,65,12.0,20.0,72,0.00,,---,0.00,VWS V14.00,2013-03-24 22:23:00,
2013-03-24 18:25:00,36.4,27.9,29.64,East,92,6.0,20.0,71,0.00,,---,0.00,VWS V14.00,2013-03-24 22:25:00,
2013-03-24 18:28:00,36.4,27.9,29.64,East,85,14.0,20.0,71,0.00,,---,0.00,VWS V14.00,2013-03-24 22:28:00,
2013-03-24 18:29:00,36.3,27.8,29.63,East,88,10.0,14.0,71,0.00,,---,0.00,VWS V14.00,2013-03-24 22:29:00,
2013-03-24 18:33:00,36.3,28.1,29.63,East,92,10.0,17.0,72,0.00,,---,0.00,VWS V14.00,2013-03-24 22:33:00,
2013-03-24 18:34:00,36.3,28.1,29.63,ENE,77,8.0,18.0,72,0.00,,---,0.00,VWS V14.00,2013-03-24 22:34:00,
2013-03-24 18:35:00,36.3,28.1,29.63,East,92,5.0,18.0,72,0.00,,---,0.00,VWS V14.00,2013-03-24 22:35:00,
2013-03-24 18:37:00,36.2,28.1,29.63,East,86,10.0,18.0,72,0.00,,---,0.00,VWS V14.00,2013-03-24 22:37:00,
2013-03-24 18:38:00,36.2,28.1,29.63,East,79,5.0,18.0,72,0.00,,---,0.00,VWS V14.00,2013-03-24 22:38:00,
2013-03-24 18:41:00,36.2,28.4,29.63,ENE,76,4.0,18.0,73,0.00,,---,0.00,VWS V14.00,2013-03-24 22:41:00,
2013-03-24 18:42:00,36.2,28.4,29.63,NE,56,10.0,18.0,73,0.00,,---,0.00,VWS V14.00,2013-03-24 22:42:00,
2013-03-24 18:43:00,36.2,28.4,29.63,ENE,78,12.0,18.0,73,0.00,,---,0.00,VWS V14.00,2013-03-24 22:43:00,
2013-03-24 18:46:00,36.1,28.3,29.63,ENE,60,9.0,18.0,73,0.00,,---,0.00,VWS V14.00,2013-03-24 22:46:00,
2013-03-24 18:47:00,36.1,28.3,29.63,ENE,77,11.0,18.0,73,0.00,,---,0.00,VWS V14.00,2013-03-24 22:47:00,
2013-03-24 18:52:00,36.0,28.2,29.64,ENE,72,10.0,18.0,73,0.00,,---,0.00,VWS V14.00,2013-03-24 22:52:00,
2013-03-24 18:53:00,36.0,28.2,29.64,ENE,68,4.0,18.0,73,0.00,,---,0.00,VWS V14.00,2013-03-24 22:53:00,
2013-03-24 18:55:00,36.0,28.2,29.64,ENE,70,11.0,18.0,73,0.00,,---,0.00,VWS V14.00,2013-03-24 22:55:00,
2013-03-24 18:57:00,36.0,28.2,29.64,East,80,7.0,18.0,73,0.00,,---,0.00,VWS V14.00,2013-03-24 22:57:00,
2013-03-24 18:58:00,36.0,27.9,29.64,ENE,76,9.0,18.0,72,0.00,,---,0.00,VWS V14.00,2013-03-24 22:58:00,
2013-03-24 18:59:00,36.0,27.9,29.64,East,97,5.0,11.0,72,0.00,,---,0.00,VWS V14.00,2013-03-24 22:59:00,
2013-03-24 19:02:00,35.9,27.8,29.64,East,87,6.0,11.0,72,0.00,,---,0.00,VWS V14.00,2013-03-24 23:02:00,
2013-03-24 19:03:00,36.0,27.9,29.64,NE,51,5.0,11.0,72,0.00,,---,0.00,VWS V14.00,2013-03-24 23:03:00,
2013-03-24 19:04:00,36.0,28.2,29.64,East,82,3.0,11.0,73,0.00,,---,0.00,VWS V14.00,2013-03-24 23:04:00,
2013-03-24 19:08:00,36.2,28.4,29.64,East,79,6.0,11.0,73,0.00,,---,0.00,VWS V14.00,2013-03-24 23:08:00,
2013-03-24 19:09:00,36.1,28.3,29.64,East,80,6.0,11.0,73,0.00,,---,0.00,VWS V14.00,2013-03-24 23:09:00,
2013-03-24 19:10:00,36.1,28.0,29.64,East,87,7.0,14.0,72,0.00,,---,0.00,VWS V14.00,2013-03-24 23:10:00,
2013-03-24 19:14:00,36.0,27.2,29.65,ENE,71,9.0,14.0,70,0.00,,---,0.00,VWS V14.00,2013-03-24 23:14:00,
2013-03-24 19:16:00,36.1,27.6,29.65,East,84,9.0,14.0,71,0.00,,---,0.00,VWS V14.00,2013-03-24 23:16:00,
2013-03-24 19:17:00,36.1,27.3,29.65,East,84,5.0,14.0,70,0.00,,---,0.00,VWS V14.00,2013-03-24 23:17:00,
2013-03-24 19:19:00,36.0,27.2,29.65,East,86,6.0,14.0,70,0.00,,---,0.00,VWS V14.00,2013-03-24 23:19:00,
2013-03-24 19:20:00,36.1,27.3,29.65,East,92,5.0,14.0,70,0.00,,---,0.00,VWS V14.00,2013-03-24 23:20:00,
2013-03-24 19:24:00,35.9,26.7,29.65,ENE,71,6.0,19.0,69,0.00,,---,0.00,VWS V14.00,2013-03-24 23:24:00,
2013-03-24 19:25:00,35.9,27.1,29.65,East,81,11.0,19.0,70,0.00,,---,0.00,VWS V14.00,2013-03-24 23:25:00,
2013-03-24 19:28:00,35.7,27.2,29.65,NE,37,16.0,20.0,71,0.00,,---,0.00,VWS V14.00,2013-03-24 23:28:00,
2013-03-24 19:30:00,35.6,27.1,29.65,ENE,74,12.0,17.0,71,0.00,,---,0.00,VWS V14.00,2013-03-24 23:30:00,
2013-03-24 19:35:00,35.2,26.8,29.65,East,81,11.0,20.0,71,0.00,,---,0.00,VWS V14.00,2013-03-24 23:35:00,
2013-03-24 19:36:00,35.2,26.8,29.65,ENE,76,5.0,20.0,71,0.00,,---,0.00,VWS V14.00,2013-03-24 23:36:00,
2013-03-24 19:37:00,35.2,26.8,29.66,ENE,59,9.0,20.0,71,0.00,,---,0.00,VWS V14.00,2013-03-24 23:37:00,
2013-03-24 19:40:00,35.1,26.7,29.66,ENE,68,4.0,20.0,71,0.00,,---,0.00,VWS V14.00,2013-03-24 23:40:00,
2013-03-24 19:41:00,35.1,27.0,29.66,ENE,59,7.0,20.0,72,0.00,,---,0.00,VWS V14.00,2013-03-24 23:41:00,
2013-03-24 19:42:00,35.1,27.0,29.65,NE,38,7.0,20.0,72,0.00,,---,0.00,VWS V14.00,2013-03-24 23:42:00,
2013-03-24 19:45:00,35.1,27.0,29.65,ENE,63,3.0,20.0,72,0.00,,---,0.00,VWS V14.00,2013-03-24 23:45:00,
2013-03-24 19:47:00,35.0,26.9,29.65,ENE,69,5.0,20.0,72,0.00,,---,0.00,VWS V14.00,2013-03-24 23:47:00,
2013-03-24 19:48:00,35.0,26.9,29.65,East,87,5.0,20.0,72,0.00,,---,0.00,VWS V14.00,2013-03-24 23:48:00,
2013-03-24 19:49:00,35.0,26.9,29.65,East,79,11.0,20.0,72,0.00,,---,0.00,VWS V14.00,2013-03-24 23:49:00,
2013-03-24 19:50:00,34.9,26.8,29.65,East,82,12.0,22.0,72,0.00,,---,0.00,VWS V14.00,2013-03-24 23:50:00,
2013-03-24 19:54:00,34.6,26.5,29.65,ENE,70,6.0,22.0,72,0.00,,---,0.00,VWS V14.00,2013-03-24 23:54:00,
2013-03-24 19:57:00,34.4,26.0,29.65,ENE,60,11.0,22.0,71,0.00,,---,0.00,VWS V14.00,2013-03-24 23:57:00,
2013-03-24 19:59:00,34.5,26.4,29.65,ENE,74,6.0,10.0,72,0.00,,---,0.00,VWS V14.00,2013-03-24 23:59:00,
2013-03-24 20:01:00,34.5,26.4,29.65,NE,40,6.0,13.0,72,0.00,,---,0.00,VWS V14.00,2013-03-25 00:01:00,
2013-03-24 20:02:00,34.6,26.9,29.65,NE,44,10.0,21.0,73,0.00,,---,0.00,VWS V14.00,2013-03-25 00:02:00,
2013-03-24 20:03:00,34.7,27.0,29.65,ENE,75,5.0,21.0,73,0.00,,---,0.00,VWS V14.00,2013-03-25 00:03:00,
2013-03-24 20:04:00,34.6,26.9,29.65,ENE,67,13.0,21.0,73,0.00,,---,0.00,VWS V14.00,2013-03-25 00:04:00,
2013-03-24 20:06:00,34.4,26.7,29.65,ENE,61,7.0,21.0,73,0.00,,---,0.00,VWS V14.00,2013-03-25 00:06:00,
2013-03-24 20:08:00,34.4,26.3,29.65,ENE,78,7.0,21.0,72,0.00,,---,0.00,VWS V14.00,2013-03-25 00:08:00,
2013-03-24 20:10:00,34.4,26.3,29.65,ENE,76,13.0,21.0,72,0.00,,---,0.00,VWS V14.00,2013-03-25 00:10:00,
2013-03-24 20:12:00,34.4,26.3,29.65,East,88,16.0,22.0,72,0.00,,---,0.00,VWS V14.00,2013-03-25 00:12:00,
2013-03-24 20:14:00,34.4,26.3,29.65,East,86,11.0,22.0,72,0.00,,---,0.00,VWS V14.00,2013-03-25 00:14:00,
2013-03-24 20:15:00,34.4,26.3,29.65,ENE,71,6.0,22.0,72,0.00,,---,0.00,VWS V14.00,2013-03-25 00:15:00,
2013-03-24 20:17:00,34.4,26.3,29.65,East,80,11.0,22.0,72,0.00,,---,0.00,VWS V14.00,2013-03-25 00:17:00,
2013-03-24 20:19:00,34.3,25.9,29.65,East,84,20.0,22.0,71,0.00,,---,0.00,VWS V14.00,2013-03-25 00:19:00,
2013-03-24 20:22:00,34.3,25.9,29.65,NE,55,7.0,22.0,71,0.00,,---,0.00,VWS V14.00,2013-03-25 00:22:00,
2013-03-24 20:23:00,34.3,26.2,29.64,ENE,76,9.0,22.0,72,0.00,,---,0.00,VWS V14.00,2013-03-25 00:23:00,
2013-03-24 20:25:00,34.3,25.9,29.64,East,80,7.0,22.0,71,0.00,,---,0.00,VWS V14.00,2013-03-25 00:25:00,
2013-03-24 20:28:00,34.3,26.2,29.65,ENE,61,5.0,22.0,72,0.00,,---,0.00,VWS V14.00,2013-03-25 00:28:00,
2013-03-24 20:29:00,34.3,25.9,29.65,ENE,59,3.0,13.0,71,0.00,,---,0.00,VWS V14.00,2013-03-25 00:29:00,
2013-03-24 20:30:00,34.3,25.9,29.65,ENE,69,4.0,13.0,71,0.00,,---,0.00,VWS V14.00,2013-03-25 00:30:00,
2013-03-24 20:31:00,34.3,26.2,29.65,ENE,71,6.0,13.0,72,0.00,,---,0.00,VWS V14.00,2013-03-25 00:31:00,
2013-03-24 20:33:00,34.3,26.2,29.65,ENE,65,7.0,15.0,72,0.00,,---,0.00,VWS V14.00,2013-03-25 00:33:00,
2013-03-24 20:36:00,34.3,26.2,29.65,NE,36,12.0,15.0,72,0.00,,---,0.00,VWS V14.00,2013-03-25 00:36:00,
2013-03-24 20:37:00,34.4,26.7,29.65,ENE,76,5.0,18.0,73,0.00,,---,0.00,VWS V14.00,2013-03-25 00:37:00,
2013-03-24 20:39:00,34.3,26.6,29.65,ENE,74,5.0,18.0,73,0.00,,---,0.00,VWS V14.00,2013-03-25 00:39:00,
2013-03-24 20:41:00,34.2,26.1,29.65,ENE,71,9.0,18.0,72,0.00,,---,0.00,VWS V14.00,2013-03-25 00:41:00,
2013-03-24 20:42:00,34.2,25.8,29.65,NE,44,10.0,18.0,71,0.00,,---,0.00,VWS V14.00,2013-03-25 00:42:00,
2013-03-24 20:43:00,34.2,25.8,29.65,NE,56,9.0,18.0,71,0.00,,---,0.00,VWS V14.00,2013-03-25 00:43:00,
2013-03-24 20:44:00,34.2,26.1,29.65,ENE,63,3.0,18.0,72,0.00,,---,0.00,VWS V14.00,2013-03-25 00:44:00,
2013-03-24 20:46:00,34.2,26.1,29.65,ENE,67,19.0,19.0,72,0.00,,---,0.00,VWS V14.00,2013-03-25 00:46:00,
2013-03-24 20:49:00,34.1,25.7,29.65,NE,52,12.0,21.0,71,0.00,,---,0.00,VWS V14.00,2013-03-25 00:49:00,
2013-03-24 20:50:00,34.1,25.7,29.65,ENE,63,11.0,21.0,71,0.00,,---,0.00,VWS V14.00,2013-03-25 00:50:00,
2013-03-24 20:51:00,34.1,26.0,29.65,ENE,75,9.0,21.0,72,0.00,,---,0.00,VWS V14.00,2013-03-25 00:51:00,
2013-03-24 20:55:00,34.1,26.0,29.64,ENE,71,18.0,21.0,72,0.00,,---,0.00,VWS V14.00,2013-03-25 00:55:00,
2013-03-24 20:56:00,34.1,26.0,29.64,ENE,59,14.0,21.0,72,0.00,,---,0.00,VWS V14.00,2013-03-25 00:56:00,
2013-03-24 20:57:00,34.1,26.4,29.64,East,79,16.0,21.0,73,0.00,,---,0.00,VWS V14.00,2013-03-25 00:57:00,
2013-03-24 21:00:00,33.9,25.5,29.64,ESE,103,10.0,18.0,71,0.00,,---,0.00,VWS V14.00,2013-03-25 01:00:00,
2013-03-24 21:01:00,33.9,25.5,29.64,ENE,58,7.0,18.0,71,0.00,,---,0.00,VWS V14.00,2013-03-25 01:01:00,
2013-03-24 21:02:00,33.9,25.5,29.64,East,83,4.0,18.0,71,0.00,,---,0.00,VWS V14.00,2013-03-25 01:02:00,
2013-03-24 21:03:00,34.0,26.3,29.64,ENE,60,4.0,18.0,73,0.00,,---,0.00,VWS V14.00,2013-03-25 01:03:00,
2013-03-24 21:06:00,33.9,25.8,29.64,East,79,10.0,21.0,72,0.00,,---,0.00,VWS V14.00,2013-03-25 01:06:00,
2013-03-24 21:07:00,33.9,25.8,29.64,ENE,69,15.0,23.0,72,0.00,,---,0.00,VWS V14.00,2013-03-25 01:07:00,
2013-03-24 21:08:00,33.9,26.2,29.64,ENE,75,9.0,23.0,73,0.00,,---,0.00,VWS V14.00,2013-03-25 01:08:00,
2013-03-24 21:10:00,33.7,26.0,29.64,NE,55,14.0,23.0,73,0.00,,---,0.00,VWS V14.00,2013-03-25 01:10:00,
2013-03-24 21:11:00,33.7,26.0,29.65,NE,41,16.0,23.0,73,0.00,,---,0.00,VWS V14.00,2013-03-25 01:11:00,
2013-03-24 21:13:00,33.7,26.3,29.65,East,82,8.0,23.0,74,0.00,,---,0.00,VWS V14.00,2013-03-25 01:13:00,
2013-03-24 21:15:00,33.7,26.3,29.65,East,79,18.0,23.0,74,0.00,,---,0.00,VWS V14.00,2013-03-25 01:15:00,
2013-03-24 21:18:00,33.6,26.2,29.65,ENE,67,10.0,23.0,74,0.00,,---,0.00,VWS V14.00,2013-03-25 01:18:00,
2013-03-24 21:20:00,33.5,26.1,29.65,ENE,68,12.0,23.0,74,0.00,,---,0.00,VWS V14.00,2013-03-25 01:20:00,
2013-03-24 21:21:00,33.5,26.1,29.65,East,81,13.0,23.0,74,0.00,,---,0.00,VWS V14.00,2013-03-25 01:21:00,
2013-03-24 21:26:00,33.5,26.1,29.65,NE,52,9.0,23.0,74,0.00,,---,0.00,VWS V14.00,2013-03-25 01:26:00,
2013-03-24 21:27:00,33.5,26.1,29.66,NE,51,4.0,23.0,74,0.00,,---,0.00,VWS V14.00,2013-03-25 01:27:00,
2013-03-24 21:31:00,33.4,26.0,29.65,NE,54,6.0,24.0,74,0.00,,---,0.00,VWS V14.00,2013-03-25 01:31:00,
2013-03-24 21:32:00,33.4,26.0,29.65,East,90,6.0,24.0,74,0.00,,---,0.00,VWS V14.00,2013-03-25 01:32:00,
2013-03-24 21:33:00,33.4,26.0,29.65,East,86,5.0,24.0,74,0.00,,---,0.00,VWS V14.00,2013-03-25 01:33:00,
2013-03-24 21:35:00,33.4,26.0,29.65,ENE,57,2.0,24.0,74,0.00,,---,0.00,VWS V14.00,2013-03-25 01:35:00,
2013-03-24 21:38:00,33.5,26.4,29.65,ENE,74,4.0,24.0,75,0.00,,---,0.00,VWS V14.00,2013-03-25 01:38:00,
2013-03-24 21:40:00,33.5,26.8,29.65,East,88,4.0,24.0,76,0.00,,---,0.00,VWS V14.00,2013-03-25 01:40:00,
2013-03-24 21:41:00,33.4,26.7,29.65,ENE,65,4.0,24.0,76,0.00,,---,0.00,VWS V14.00,2013-03-25 01:41:00,
2013-03-24 21:45:00,33.5,27.1,29.65,NE,49,3.0,24.0,77,0.00,,---,0.00,VWS V14.00,2013-03-25 01:45:00,
2013-03-24 21:46:00,33.4,27.0,29.65,East,80,5.0,24.0,77,0.00,,---,0.00,VWS V14.00,2013-03-25 01:46:00,
2013-03-24 21:47:00,33.3,26.6,29.65,East,92,9.0,24.0,76,0.00,,---,0.00,VWS V14.00,2013-03-25 01:47:00,
2013-03-24 21:51:00,33.1,26.4,29.65,East,94,8.0,24.0,76,0.00,,---,0.00,VWS V14.00,2013-03-25 01:51:00,
2013-03-24 21:52:00,33.1,26.0,29.65,ENE,77,12.0,24.0,75,0.00,,---,0.00,VWS V14.00,2013-03-25 01:52:00,
2013-03-24 21:54:00,33.0,26.3,29.65,ENE,61,21.0,24.0,76,0.00,,---,0.00,VWS V14.00,2013-03-25 01:54:00,
2013-03-24 21:56:00,33.0,26.3,29.66,ENE,74,6.0,24.0,76,0.00,,---,0.00,VWS V14.00,2013-03-25 01:56:00,
2013-03-24 21:57:00,32.9,25.9,29.66,ENE,67,7.0,24.0,75,0.00,,---,0.00,VWS V14.00,2013-03-25 01:57:00,
2013-03-24 21:59:00,32.9,25.9,29.66,ENE,71,14.0,20.0,75,0.00,,---,0.00,VWS V14.00,2013-03-25 01:59:00,
2013-03-24 22:02:00,33.0,26.3,29.65,ENE,65,14.0,20.0,76,0.00,,---,0.00,VWS V14.00,2013-03-25 02:02:00,
2013-03-24 22:03:00,33.1,26.7,29.65,NE,44,7.0,20.0,77,0.00,,---,0.00,VWS V14.00,2013-03-25 02:03:00,
2013-03-24 22:04:00,33.1,26.7,29.65,NE,51,21.0,21.0,77,0.00,,---,0.00,VWS V14.00,2013-03-25 02:04:00,
2013-03-24 22:07:00,33.1,26.7,29.65,ENE,68,7.0,21.0,77,0.00,,---,0.00,VWS V14.00,2013-03-25 02:07:00,
2013-03-24 22:08:00,33.0,26.3,29.66,ENE,61,7.0,21.0,76,0.00,,---,0.00,VWS V14.00,2013-03-25 02:08:00,
2013-03-24 22:09:00,32.9,26.2,29.66,NE,51,17.0,21.0,76,0.00,,---,0.00,VWS V14.00,2013-03-25 02:09:00,
2013-03-24 22:12:00,32.9,26.2,29.66,East,80,10.0,21.0,76,0.00,,---,0.00,VWS V14.00,2013-03-25 02:12:00,
2013-03-24 22:14:00,32.9,26.2,29.66,NE,44,15.0,21.0,76,0.00,,---,0.00,VWS V14.00,2013-03-25 02:14:00,
2013-03-24 22:17:00,32.8,25.8,29.66,NE,56,6.0,21.0,75,0.00,,---,0.00,VWS V14.00,2013-03-25 02:17:00,
2013-03-24 22:18:00,32.8,25.8,29.66,ENE,71,7.0,21.0,75,0.00,,---,0.00,VWS V14.00,2013-03-25 02:18:00,
2013-03-24 22:19:00,32.8,26.1,29.66,ENE,75,13.0,21.0,76,0.00,,---,0.00,VWS V14.00,2013-03-25 02:19:00,
2013-03-24 22:21:00,32.8,26.1,29.66,ENE,74,9.0,21.0,76,0.00,,---,0.00,VWS V14.00,2013-03-25 02:21:00,
2013-03-24 22:22:00,32.8,26.1,29.66,East,84,9.0,21.0,76,0.00,,---,0.00,VWS V14.00,2013-03-25 02:22:00,
2013-03-24 22:23:00,32.8,26.1,29.66,ENE,62,4.0,21.0,76,0.00,,---,0.00,VWS V14.00,2013-03-25 02:23:00,
2013-03-24 22:24:00,32.7,26.0,29.66,ENE,64,3.0,21.0,76,0.00,,---,0.00,VWS V14.00,2013-03-25 02:24:00,
2013-03-24 22:27:00,32.7,26.0,29.66,East,84,12.0,21.0,76,0.00,,---,0.00,VWS V14.00,2013-03-25 02:27:00,
2013-03-24 22:28:00,32.7,26.0,29.66,ENE,77,13.0,21.0,76,0.00,,---,0.00,VWS V14.00,2013-03-25 02:28:00,
2013-03-24 22:29:00,32.7,26.0,29.66,ENE,78,9.0,15.0,76,0.00,,---,0.00,VWS V14.00,2013-03-25 02:29:00,
2013-03-24 22:30:00,32.6,25.9,29.66,ENE,73,11.0,16.0,76,0.00,,---,0.00,VWS V14.00,2013-03-25 02:30:00,
2013-03-24 22:33:00,32.8,26.4,29.66,NE,51,7.0,16.0,77,0.00,,---,0.00,VWS V14.00,2013-03-25 02:33:00,
2013-03-24 22:37:00,32.9,26.8,29.66,NE,53,6.0,16.0,78,0.00,,---,0.00,VWS V14.00,2013-03-25 02:37:00,
2013-03-24 22:38:00,32.8,26.4,29.66,ENE,63,10.0,16.0,77,0.00,,---,0.00,VWS V14.00,2013-03-25 02:38:00,
2013-03-24 22:39:00,32.8,26.4,29.66,ENE,61,3.0,16.0,77,0.00,,---,0.00,VWS V14.00,2013-03-25 02:39:00,
2013-03-24 22:43:00,32.8,26.4,29.66,ENE,76,7.0,16.0,77,0.00,,---,0.00,VWS V14.00,2013-03-25 02:43:00,
2013-03-24 22:44:00,32.7,26.0,29.66,ENE,63,3.0,16.0,76,0.00,,---,0.00,VWS V14.00,2013-03-25 02:44:00,
2013-03-24 22:45:00,32.7,26.0,29.66,NE,55,3.0,16.0,76,0.00,,---,0.00,VWS V14.00,2013-03-25 02:45:00,
2013-03-24 22:49:00,32.7,26.3,29.66,ENE,71,11.0,16.0,77,0.00,,---,0.00,VWS V14.00,2013-03-25 02:49:00,
2013-03-24 22:50:00,32.6,25.9,29.66,ENE,69,9.0,16.0,76,0.00,,---,0.00,VWS V14.00,2013-03-25 02:50:00,
2013-03-24 22:51:00,32.6,25.9,29.66,ENE,64,5.0,16.0,76,0.00,,---,0.00,VWS V14.00,2013-03-25 02:51:00,
2013-03-24 22:54:00,32.4,25.4,29.66,East,91,8.0,16.0,75,0.00,,---,0.00,VWS V14.00,2013-03-25 02:54:00,
2013-03-24 22:56:00,32.5,25.8,29.66,ENE,75,4.0,16.0,76,0.00,,---,0.00,VWS V14.00,2013-03-25 02:56:00,
2013-03-24 22:57:00,32.6,26.2,29.66,NE,52,10.0,16.0,77,0.00,,---,0.00,VWS V14.00,2013-03-25 02:57:00,
2013-03-24 23:01:00,32.5,25.8,29.66,East,83,7.0,12.0,76,0.00,,---,0.00,VWS V14.00,2013-03-25 03:01:00,
2013-03-24 23:03:00,32.5,25.8,29.66,NE,55,13.0,13.0,76,0.00,,---,0.00,VWS V14.00,2013-03-25 03:03:00,
2013-03-24 23:07:00,32.4,25.7,29.66,ENE,65,15.0,15.0,76,0.00,,---,0.00,VWS V14.00,2013-03-25 03:07:00,
2013-03-24 23:08:00,32.4,25.7,29.66,ENE,72,5.0,15.0,76,0.00,,---,0.00,VWS V14.00,2013-03-25 03:08:00,
2013-03-24 23:09:00,32.4,25.7,29.66,ENE,68,6.0,15.0,76,0.00,,---,0.00,VWS V14.00,2013-03-25 03:09:00,
2013-03-24 23:12:00,32.3,25.6,29.66,ENE,68,2.0,15.0,76,0.00,,---,0.00,VWS V14.00,2013-03-25 03:12:00,
2013-03-24 23:13:00,32.3,25.3,29.66,ENE,67,2.0,15.0,75,0.00,,---,0.00,VWS V14.00,2013-03-25 03:13:00,
2013-03-24 23:16:00,32.4,25.4,29.66,ENE,74,10.0,15.0,75,0.00,,---,0.00,VWS V14.00,2013-03-25 03:16:00,
2013-03-24 23:17:00,32.3,25.3,29.66,ENE,62,4.0,15.0,75,0.00,,---,0.00,VWS V14.00,2013-03-25 03:17:00,
2013-03-24 23:18:00,32.4,25.7,29.66,NE,52,11.0,15.0,76,0.00,,---,0.00,VWS V14.00,2013-03-25 03:18:00,
2013-03-24 23:21:00,32.4,25.7,29.66,ENE,67,7.0,16.0,76,0.00,,---,0.00,VWS V14.00,2013-03-25 03:21:00,
2013-03-24 23:22:00,32.4,25.7,29.66,ENE,59,5.0,16.0,76,0.00,,---,0.00,VWS V14.00,2013-03-25 03:22:00,
2013-03-24 23:23:00,32.4,25.7,29.66,ENE,66,10.0,16.0,76,0.00,,---,0.00,VWS V14.00,2013-03-25 03:23:00,
2013-03-24 23:24:00,32.3,25.6,29.66,ENE,69,9.0,16.0,76,0.00,,---,0.00,VWS V14.00,2013-03-25 03:24:00,
2013-03-24 23:27:00,32.3,25.6,29.66,ENE,71,3.0,16.0,76,0.00,,---,0.00,VWS V14.00,2013-03-25 03:27:00,
2013-03-24 23:28:00,32.3,25.3,29.66,NE,56,7.0,16.0,75,0.00,,---,0.00,VWS V14.00,2013-03-25 03:28:00,
2013-03-24 23:30:00,32.3,25.6,29.66,ENE,71,5.0,10.0,76,0.00,,---,0.00,VWS V14.00,2013-03-25 03:30:00,
2013-03-24 23:32:00,32.3,25.6,29.66,ENE,71,4.0,10.0,76,0.00,,---,0.00,VWS V14.00,2013-03-25 03:32:00,
2013-03-24 23:33:00,32.3,25.6,29.66,ENE,76,2.0,10.0,76,0.00,,---,0.00,VWS V14.00,2013-03-25 03:33:00,
2013-03-24 23:35:00,32.3,25.6,29.66,NE,55,11.0,11.0,76,0.00,,---,0.00,VWS V14.00,2013-03-25 03:35:00,
2013-03-24 23:37:00,32.4,26.0,29.66,ENE,78,8.0,11.0,77,0.00,,---,0.00,VWS V14.00,2013-03-25 03:37:00,
2013-03-24 23:38:00,32.4,26.0,29.66,East,84,6.0,11.0,77,0.00,,---,0.00,VWS V14.00,2013-03-25 03:38:00,
2013-03-24 23:40:00,32.3,25.6,29.66,ENE,72,5.0,11.0,76,0.00,,---,0.00,VWS V14.00,2013-03-25 03:40:00,
2013-03-24 23:43:00,32.3,25.6,29.66,East,87,4.0,11.0,76,0.00,,---,0.00,VWS V14.00,2013-03-25 03:43:00,
2013-03-24 23:46:00,32.4,26.0,29.66,ENE,78,4.0,11.0,77,0.00,,---,0.00,VWS V14.00,2013-03-25 03:46:00,
2013-03-24 23:47:00,32.3,25.9,29.66,ENE,76,5.0,11.0,77,0.00,,---,0.00,VWS V14.00,2013-03-25 03:47:00,
2013-03-24 23:48:00,32.3,25.9,29.66,ENE,68,2.0,11.0,77,0.00,,---,0.00,VWS V14.00,2013-03-25 03:48:00,
2013-03-24 23:52:00,32.5,26.4,29.66,NE,53,2.0,11.0,78,0.00,,---,0.00,VWS V14.00,2013-03-25 03:52:00,
2013-03-24 23:53:00,32.5,26.4,29.66,East,84,6.0,11.0,78,0.00,,---,0.00,VWS V14.00,2013-03-25 03:53:00,
2013-03-24 23:55:00,32.4,26.0,29.66,NE,55,2.0,11.0,77,0.00,,---,0.00,VWS V14.00,2013-03-25 03:55:00,
2013-03-24 23:58:00,32.4,26.3,29.65,ENE,64,5.0,6.0,78,0.00,,---,0.00,VWS V14.00,2013-03-25 03:58:00,
2013-03-24 23:59:00,32.4,26.3,29.65,ENE,72,10.0,10.0,78,0.00,,---,0.00,VWS V14.00,2013-03-25 03:59:00,